<?xml version='1.0' encoding='UTF-8'?>
<gpx xmlns="http://www.topografix.com/GPX/1/1" creator="www.balnam.be" version="1.1" xmlns:xsi="http://www.w3.org/2001/XMLSchema-instance" xsi:schemaLocation="http://www.topografix.com/GPX/1/1 http://www.topografix.com/GPX/1/1/gpx.xsd">
<trk>
<name>halal1</name>
<cmt>v</cmt>
<desc>Anderlues Chemin n°1 </desc>
<link href="https://chemins.be/anderlues/chemin/1"/><trkseg>
<trkpt lat="50.392025" lon="4.253721"><time>2026-05-02T20:50:01Z</time></trkpt>
<trkpt lat="50.390540" lon="4.253291"><time>2026-05-02T21:00:01Z</time></trkpt>
<trkpt lat="50.390263" lon="4.253313"><time>2026-05-02T21:10:01Z</time></trkpt>
<trkpt lat="50.389363" lon="4.253093"><time>2026-05-02T21:20:01Z</time></trkpt>
<trkpt lat="50.388431" lon="4.252610"><time>2026-05-02T21:30:01Z</time></trkpt>
<trkpt lat="50.387339" lon="4.252073"><time>2026-05-02T21:40:01Z</time></trkpt>
<trkpt lat="50.384748" lon="4.252578"><time>2026-05-02T21:50:01Z</time></trkpt>
<trkpt lat="50.383290" lon="4.253243"><time>2026-05-02T22:00:01Z</time></trkpt>
<trkpt lat="50.381423" lon="4.254434"><time>2026-05-02T22:10:01Z</time></trkpt>
</trkseg>
</trk>
<trk>
<name>halal100</name>
<cmt>v</cmt>
<desc>Anderlues Sentier n°100 </desc>
<link href="https://chemins.be/anderlues/sentier/100"/><trkseg>
<trkpt lat="50.419950" lon="4.275272"><time>2026-05-02T20:50:01Z</time></trkpt>
<trkpt lat="50.419830" lon="4.276661"><time>2026-05-02T21:00:01Z</time></trkpt>
</trkseg></trk>
<trk>
<name>halal100</name>
<cmt>q</cmt>
<desc>Anderlues Sentier n°100 </desc>
<link href="https://chemins.be/anderlues/sentier/100"/><trkseg>
<trkpt lat="50.419830" lon="4.276661"><time>2026-05-02T21:00:01Z</time></trkpt>
<trkpt lat="50.419737" lon="4.277368"><time>2026-05-02T21:10:01Z</time></trkpt>
<trkpt lat="50.419734" lon="4.278353"><time>2026-05-02T21:20:01Z</time></trkpt>
<trkpt lat="50.419467" lon="4.280198"><time>2026-05-02T21:30:01Z</time></trkpt>
<trkpt lat="50.419365" lon="4.282061"><time>2026-05-02T21:40:01Z</time></trkpt>
<trkpt lat="50.419516" lon="4.284507"><time>2026-05-02T21:50:01Z</time></trkpt>
<trkpt lat="50.419589" lon="4.285637"><time>2026-05-02T22:00:01Z</time></trkpt>
<trkpt lat="50.420017" lon="4.290429"><time>2026-05-02T22:10:01Z</time></trkpt>
<trkpt lat="50.419955" lon="4.292142"><time>2026-05-02T22:20:01Z</time></trkpt>
<trkpt lat="50.419917" lon="4.293047"><time>2026-05-02T22:30:01Z</time></trkpt>
</trkseg>
</trk>
<trk>
<name>halal101</name>
<cmt>r</cmt>
<desc>Anderlues Sentier n°101 Chemin de fontaine</desc>
<link href="https://chemins.be/anderlues/sentier/101"/><trkseg>
<trkpt lat="50.416897" lon="4.283393"><time>2026-05-02T20:50:01Z</time></trkpt>
<trkpt lat="50.417353" lon="4.288893"><time>2026-05-02T21:00:01Z</time></trkpt>
<trkpt lat="50.417308" lon="4.291232"><time>2026-05-02T21:10:01Z</time></trkpt>
</trkseg>
</trk>
<trk>
<name>halal102</name>
<cmt>q</cmt>
<desc>Anderlues Sentier n°102 </desc>
<link href="https://chemins.be/anderlues/sentier/102"/><trkseg>
<trkpt lat="50.408661" lon="4.291947"><time>2026-05-02T20:50:01Z</time></trkpt>
<trkpt lat="50.410503" lon="4.292412"><time>2026-05-02T21:00:01Z</time></trkpt>
<trkpt lat="50.415297" lon="4.291878"><time>2026-05-02T21:10:01Z</time></trkpt>
<trkpt lat="50.417246" lon="4.291202"><time>2026-05-02T21:20:01Z</time></trkpt>
<trkpt lat="50.418467" lon="4.291331"><time>2026-05-02T21:30:01Z</time></trkpt>
<trkpt lat="50.420473" lon="4.292418"><time>2026-05-02T21:40:01Z</time></trkpt>
<trkpt lat="50.422879" lon="4.292074"><time>2026-05-02T21:50:01Z</time></trkpt>
<trkpt lat="50.424118" lon="4.293004"><time>2026-05-02T22:00:01Z</time></trkpt>
</trkseg>
</trk>
<trk>
<name>halal103</name>
<cmt>v</cmt>
<desc>Anderlues Sentier n°103 Rue du Basisn</desc>
<link href="https://chemins.be/anderlues/sentier/103"/><trkseg>
<trkpt lat="50.409601" lon="4.273642"><time>2026-05-02T20:50:01Z</time></trkpt>
<trkpt lat="50.409808" lon="4.273825"><time>2026-05-02T21:00:01Z</time></trkpt>
<trkpt lat="50.410455" lon="4.274443"><time>2026-05-02T21:10:01Z</time></trkpt>
<trkpt lat="50.410707" lon="4.275005"><time>2026-05-02T21:20:01Z</time></trkpt>
</trkseg>
</trk>
<trk>
<name>halal104</name>
<cmt>v</cmt>
<desc>Anderlues Sentier n°104 Rue de la Source</desc>
<link href="https://chemins.be/anderlues/sentier/104"/><trkseg>
<trkpt lat="50.409927" lon="4.276723"><time>2026-05-02T20:50:01Z</time></trkpt>
<trkpt lat="50.409694" lon="4.277764"><time>2026-05-02T21:00:01Z</time></trkpt>
<trkpt lat="50.409568" lon="4.277990"><time>2026-05-02T21:10:01Z</time></trkpt>
<trkpt lat="50.409442" lon="4.278145"><time>2026-05-02T21:20:01Z</time></trkpt>
<trkpt lat="50.409201" lon="4.280143"><time>2026-05-02T21:30:01Z</time></trkpt>
<trkpt lat="50.408231" lon="4.281439"><time>2026-05-02T21:40:01Z</time></trkpt>
</trkseg>
</trk>
<trk>
<name>halal105</name>
<cmt>v</cmt>
<desc>Anderlues Sentier n°105 Ruelle du Militaire</desc>
<link href="https://chemins.be/anderlues/sentier/105"/><trkseg>
<trkpt lat="50.408116" lon="4.283465"><time>2026-05-02T20:50:01Z</time></trkpt>
<trkpt lat="50.408053" lon="4.283127"><time>2026-05-02T21:00:01Z</time></trkpt>
<trkpt lat="50.407899" lon="4.282523"><time>2026-05-02T21:10:01Z</time></trkpt>
<trkpt lat="50.407890" lon="4.281918"><time>2026-05-02T21:20:01Z</time></trkpt>
<trkpt lat="50.407557" lon="4.281890"><time>2026-05-02T21:30:01Z</time></trkpt>
<trkpt lat="50.407278" lon="4.280807"><time>2026-05-02T21:40:01Z</time></trkpt>
</trkseg></trk>
<trk>
<name>halal105</name>
<cmt>r</cmt>
<desc>Anderlues Sentier n°105 Ruelle du Militaire</desc>
<link href="https://chemins.be/anderlues/sentier/105"/><trkseg>
<trkpt lat="50.407278" lon="4.280807"><time>2026-05-02T21:40:01Z</time></trkpt>
<trkpt lat="50.407034" lon="4.280034"><time>2026-05-02T21:50:01Z</time></trkpt>
</trkseg></trk>
<trk>
<name>halal105</name>
<cmt>q</cmt>
<desc>Anderlues Sentier n°105 Ruelle du Militaire</desc>
<link href="https://chemins.be/anderlues/sentier/105"/><trkseg>
<trkpt lat="50.407034" lon="4.280034"><time>2026-05-02T21:50:01Z</time></trkpt>
<trkpt lat="50.406916" lon="4.277615"><time>2026-05-02T22:00:01Z</time></trkpt>
<trkpt lat="50.406789" lon="4.276250"><time>2026-05-02T22:10:01Z</time></trkpt>
</trkseg></trk>
<trk>
<name>halal105</name>
<cmt>v</cmt>
<desc>Anderlues Sentier n°105 Ruelle du Militaire</desc>
<link href="https://chemins.be/anderlues/sentier/105"/><trkseg>
<trkpt lat="50.406789" lon="4.276250"><time>2026-05-02T22:10:01Z</time></trkpt>
<trkpt lat="50.406689" lon="4.275758"><time>2026-05-02T22:20:01Z</time></trkpt>
</trkseg></trk>
<trk>
<name>halal105</name>
<cmt>q</cmt>
<desc>Anderlues Sentier n°105 Ruelle du Militaire</desc>
<link href="https://chemins.be/anderlues/sentier/105"/><trkseg>
<trkpt lat="50.406689" lon="4.275758"><time>2026-05-02T22:20:01Z</time></trkpt>
<trkpt lat="50.406093" lon="4.272102"><time>2026-05-02T22:30:01Z</time></trkpt>
</trkseg>
</trk>
<trk>
<name>halal106</name>
<cmt>v</cmt>
<desc>Anderlues Sentier n°106 Ruelle du Dispensaire / Sentier de la Fiancée</desc>
<link href="https://chemins.be/anderlues/sentier/106"/><trkseg>
<trkpt lat="50.407147" lon="4.274280"><time>2026-05-02T20:50:01Z</time></trkpt>
<trkpt lat="50.406725" lon="4.275744"><time>2026-05-02T21:00:01Z</time></trkpt>
<trkpt lat="50.405961" lon="4.275802"><time>2026-05-02T21:10:01Z</time></trkpt>
</trkseg>
</trk>
<trk>
<name>halal107</name>
<cmt>v</cmt>
<desc>Anderlues Sentier n°107 Sentier de la Pépinière</desc>
<link href="https://chemins.be/anderlues/sentier/107"/><trkseg>
<trkpt lat="50.409085" lon="4.275040"><time>2026-05-02T20:50:01Z</time></trkpt>
<trkpt lat="50.407515" lon="4.273491"><time>2026-05-02T21:00:01Z</time></trkpt>
</trkseg>
</trk>
<trk>
<name>halal108</name>
<cmt>q</cmt>
<desc>Anderlues Sentier n°108 Rue de la Source</desc>
<link href="https://chemins.be/anderlues/sentier/108"/><trkseg>
<trkpt lat="50.412239" lon="4.279857"><time>2026-05-02T20:50:01Z</time></trkpt>
<trkpt lat="50.409782" lon="4.278889"><time>2026-05-02T21:00:01Z</time></trkpt>
<trkpt lat="50.409438" lon="4.278323"><time>2026-05-02T21:10:01Z</time></trkpt>
<trkpt lat="50.409498" lon="4.278074"><time>2026-05-02T21:20:01Z</time></trkpt>
</trkseg></trk>
<trk>
<name>halal108</name>
<cmt>v</cmt>
<desc>Anderlues Sentier n°108 Rue de la Source</desc>
<link href="https://chemins.be/anderlues/sentier/108"/><trkseg>
<trkpt lat="50.409498" lon="4.278074"><time>2026-05-02T21:20:01Z</time></trkpt>
<trkpt lat="50.409254" lon="4.278187"><time>2026-05-02T21:30:01Z</time></trkpt>
<trkpt lat="50.408435" lon="4.277696"><time>2026-05-02T21:40:01Z</time></trkpt>
<trkpt lat="50.408102" lon="4.277303"><time>2026-05-02T21:50:01Z</time></trkpt>
<trkpt lat="50.406780" lon="4.276194"><time>2026-05-02T22:00:01Z</time></trkpt>
</trkseg>
</trk>
<trk>
<name>halal109</name>
<cmt>r</cmt>
<desc>Anderlues Sentier n°109 Rue de la Victoire</desc>
<link href="https://chemins.be/anderlues/sentier/109"/><trkseg>
<trkpt lat="50.401895" lon="4.272939"><time>2026-05-02T20:50:01Z</time></trkpt>
<trkpt lat="50.402436" lon="4.272347"><time>2026-05-02T21:00:01Z</time></trkpt>
</trkseg></trk>
<trk>
<name>halal109</name>
<cmt>v</cmt>
<desc>Anderlues Sentier n°109 Rue de la Victoire</desc>
<link href="https://chemins.be/anderlues/sentier/109"/><trkseg>
<trkpt lat="50.402436" lon="4.272347"><time>2026-05-02T21:00:01Z</time></trkpt>
<trkpt lat="50.404744" lon="4.270509"><time>2026-05-02T21:10:01Z</time></trkpt>
</trkseg></trk>
<trk>
<name>halal109</name>
<cmt>r</cmt>
<desc>Anderlues Sentier n°109 Rue de la Victoire</desc>
<link href="https://chemins.be/anderlues/sentier/109"/><trkseg>
<trkpt lat="50.404744" lon="4.270509"><time>2026-05-02T21:10:01Z</time></trkpt>
<trkpt lat="50.404893" lon="4.270407"><time>2026-05-02T21:20:01Z</time></trkpt>
</trkseg></trk>
<trk>
<name>halal109</name>
<cmt>q</cmt>
<desc>Anderlues Sentier n°109 Rue de la Victoire</desc>
<link href="https://chemins.be/anderlues/sentier/109"/><trkseg>
<trkpt lat="50.404893" lon="4.270407"><time>2026-05-02T21:20:01Z</time></trkpt>
<trkpt lat="50.405702" lon="4.269566"><time>2026-05-02T21:30:01Z</time></trkpt>
</trkseg>
</trk>
<trk>
<name>halal11</name>
<cmt>v</cmt>
<desc>Anderlues Chemin n°11 </desc>
<link href="https://chemins.be/anderlues/chemin/11"/><trkseg>
<trkpt lat="50.389000" lon="4.259621"><time>2026-05-02T20:50:01Z</time></trkpt>
<trkpt lat="50.389991" lon="4.261376"><time>2026-05-02T21:00:01Z</time></trkpt>
<trkpt lat="50.390377" lon="4.261207"><time>2026-05-02T21:10:01Z</time></trkpt>
<trkpt lat="50.391314" lon="4.262527"><time>2026-05-02T21:20:01Z</time></trkpt>
<trkpt lat="50.392178" lon="4.263875"><time>2026-05-02T21:30:01Z</time></trkpt>
<trkpt lat="50.393034" lon="4.265954"><time>2026-05-02T21:40:01Z</time></trkpt>
</trkseg>
</trk>
<trk>
<name>halal110</name>
<cmt>q</cmt>
<desc>Anderlues Sentier n°110 </desc>
<link href="https://chemins.be/anderlues/sentier/110"/><trkseg>
<trkpt lat="50.403714" lon="4.285988"><time>2026-05-02T20:50:01Z</time></trkpt>
<trkpt lat="50.403235" lon="4.284686"><time>2026-05-02T21:00:01Z</time></trkpt>
<trkpt lat="50.402930" lon="4.282175"><time>2026-05-02T21:10:01Z</time></trkpt>
<trkpt lat="50.402466" lon="4.277723"><time>2026-05-02T21:20:01Z</time></trkpt>
<trkpt lat="50.401372" lon="4.273574"><time>2026-05-02T21:30:01Z</time></trkpt>
<trkpt lat="50.400679" lon="4.272044"><time>2026-05-02T21:40:01Z</time></trkpt>
<trkpt lat="50.400050" lon="4.271386"><time>2026-05-02T21:50:01Z</time></trkpt>
<trkpt lat="50.398864" lon="4.267743"><time>2026-05-02T22:00:01Z</time></trkpt>
<trkpt lat="50.399079" lon="4.266225"><time>2026-05-02T22:10:01Z</time></trkpt>
<trkpt lat="50.399038" lon="4.266080"><time>2026-05-02T22:20:01Z</time></trkpt>
<trkpt lat="50.399325" lon="4.265152"><time>2026-05-02T22:30:01Z</time></trkpt>
</trkseg>
</trk>
<trk>
<name>halal111</name>
<cmt>v</cmt>
<desc>Anderlues Sentier n°111 Sentier de l'Image</desc>
<link href="https://chemins.be/anderlues/sentier/111"/><trkseg>
<trkpt lat="50.402358" lon="4.268687"><time>2026-05-02T20:50:01Z</time></trkpt>
<trkpt lat="50.400746" lon="4.268156"><time>2026-05-02T21:00:01Z</time></trkpt>
</trkseg></trk>
<trk>
<name>halal111</name>
<cmt>r</cmt>
<desc>Anderlues Sentier n°111 Sentier de l'Image</desc>
<link href="https://chemins.be/anderlues/sentier/111"/><trkseg>
<trkpt lat="50.400746" lon="4.268156"><time>2026-05-02T21:00:01Z</time></trkpt>
<trkpt lat="50.399618" lon="4.267884"><time>2026-05-02T21:10:01Z</time></trkpt>
</trkseg></trk>
<trk>
<name>halal111</name>
<cmt>q</cmt>
<desc>Anderlues Sentier n°111 Sentier de l'Image</desc>
<link href="https://chemins.be/anderlues/sentier/111"/><trkseg>
<trkpt lat="50.399618" lon="4.267884"><time>2026-05-02T21:10:01Z</time></trkpt>
<trkpt lat="50.398660" lon="4.267652"><time>2026-05-02T21:20:01Z</time></trkpt>
<trkpt lat="50.397919" lon="4.267183"><time>2026-05-02T21:30:01Z</time></trkpt>
<trkpt lat="50.397032" lon="4.266429"><time>2026-05-02T21:40:01Z</time></trkpt>
</trkseg>
</trk>
<trk>
<name>halal112</name>
<cmt>q</cmt>
<desc>Anderlues Sentier n°112 </desc>
<link href="https://chemins.be/anderlues/sentier/112"/><trkseg>
<trkpt lat="50.399414" lon="4.271053"><time>2026-05-02T20:50:01Z</time></trkpt>
<trkpt lat="50.399979" lon="4.269192"><time>2026-05-02T21:00:01Z</time></trkpt>
<trkpt lat="50.400562" lon="4.268741"><time>2026-05-02T21:10:01Z</time></trkpt>
<trkpt lat="50.400663" lon="4.268762"><time>2026-05-02T21:20:01Z</time></trkpt>
</trkseg>
</trk>
<trk>
<name>halal113</name>
<cmt>q</cmt>
<desc>Anderlues Sentier n°113 Rue du Château</desc>
<link href="https://chemins.be/anderlues/sentier/113"/><trkseg>
<trkpt lat="50.398669" lon="4.267673"><time>2026-05-02T20:50:01Z</time></trkpt>
<trkpt lat="50.397968" lon="4.268591"><time>2026-05-02T21:00:01Z</time></trkpt>
<trkpt lat="50.396812" lon="4.269100"><time>2026-05-02T21:10:01Z</time></trkpt>
<trkpt lat="50.393710" lon="4.268247"><time>2026-05-02T21:20:01Z</time></trkpt>
</trkseg></trk>
<trk>
<name>halal113</name>
<cmt>r</cmt>
<desc>Anderlues Sentier n°113 Rue du Château</desc>
<link href="https://chemins.be/anderlues/sentier/113"/><trkseg>
<trkpt lat="50.393710" lon="4.268247"><time>2026-05-02T21:20:01Z</time></trkpt>
<trkpt lat="50.393047" lon="4.268011"><time>2026-05-02T21:30:01Z</time></trkpt>
<trkpt lat="50.392469" lon="4.267631"><time>2026-05-02T21:40:01Z</time></trkpt>
</trkseg></trk>
<trk>
<name>halal113</name>
<cmt>q</cmt>
<desc>Anderlues Sentier n°113 Rue du Château</desc>
<link href="https://chemins.be/anderlues/sentier/113"/><trkseg>
<trkpt lat="50.392469" lon="4.267631"><time>2026-05-02T21:40:01Z</time></trkpt>
<trkpt lat="50.391662" lon="4.267593"><time>2026-05-02T21:50:01Z</time></trkpt>
</trkseg>
</trk>
<trk>
<name>halal114</name>
<cmt>q</cmt>
<desc>Anderlues Sentier n°114 Rue Victor Larock / Rue Camille Lemonier / Rue de Bouchenies</desc>
<link href="https://chemins.be/anderlues/sentier/114"/><trkseg>
<trkpt lat="50.383026" lon="4.275411"><time>2026-05-02T20:50:01Z</time></trkpt>
<trkpt lat="50.384420" lon="4.274930"><time>2026-05-02T21:00:01Z</time></trkpt>
</trkseg></trk>
<trk>
<name>halal114</name>
<cmt>v</cmt>
<desc>Anderlues Sentier n°114 Rue Victor Larock / Rue Camille Lemonier / Rue de Bouchenies</desc>
<link href="https://chemins.be/anderlues/sentier/114"/><trkseg>
<trkpt lat="50.384420" lon="4.274930"><time>2026-05-02T21:00:01Z</time></trkpt>
<trkpt lat="50.386532" lon="4.274419"><time>2026-05-02T21:10:01Z</time></trkpt>
</trkseg></trk>
<trk>
<name>halal114</name>
<cmt>r</cmt>
<desc>Anderlues Sentier n°114 Rue Victor Larock / Rue Camille Lemonier / Rue de Bouchenies</desc>
<link href="https://chemins.be/anderlues/sentier/114"/><trkseg>
<trkpt lat="50.386532" lon="4.274419"><time>2026-05-02T21:10:01Z</time></trkpt>
<trkpt lat="50.387494" lon="4.274108"><time>2026-05-02T21:20:01Z</time></trkpt>
<trkpt lat="50.389507" lon="4.273457"><time>2026-05-02T21:30:01Z</time></trkpt>
</trkseg></trk>
<trk>
<name>halal114</name>
<cmt>q</cmt>
<desc>Anderlues Sentier n°114 Rue Victor Larock / Rue Camille Lemonier / Rue de Bouchenies</desc>
<link href="https://chemins.be/anderlues/sentier/114"/><trkseg>
<trkpt lat="50.389507" lon="4.273457"><time>2026-05-02T21:30:01Z</time></trkpt>
<trkpt lat="50.390010" lon="4.273386"><time>2026-05-02T21:40:01Z</time></trkpt>
<trkpt lat="50.390415" lon="4.273835"><time>2026-05-02T21:50:01Z</time></trkpt>
</trkseg></trk>
<trk>
<name>halal114</name>
<cmt>r</cmt>
<desc>Anderlues Sentier n°114 Rue Victor Larock / Rue Camille Lemonier / Rue de Bouchenies</desc>
<link href="https://chemins.be/anderlues/sentier/114"/><trkseg>
<trkpt lat="50.390415" lon="4.273835"><time>2026-05-02T21:50:01Z</time></trkpt>
<trkpt lat="50.391071" lon="4.272793"><time>2026-05-02T22:00:01Z</time></trkpt>
</trkseg></trk>
<trk>
<name>halal114</name>
<cmt>v</cmt>
<desc>Anderlues Sentier n°114 Rue Victor Larock / Rue Camille Lemonier / Rue de Bouchenies</desc>
<link href="https://chemins.be/anderlues/sentier/114"/><trkseg>
<trkpt lat="50.391071" lon="4.272793"><time>2026-05-02T22:00:01Z</time></trkpt>
<trkpt lat="50.391458" lon="4.273046"><time>2026-05-02T22:10:01Z</time></trkpt>
<trkpt lat="50.392805" lon="4.272002"><time>2026-05-02T22:20:01Z</time></trkpt>
<trkpt lat="50.394459" lon="4.271000"><time>2026-05-02T22:30:01Z</time></trkpt>
<trkpt lat="50.395177" lon="4.270492"><time>2026-05-02T22:40:01Z</time></trkpt>
<trkpt lat="50.395573" lon="4.270590"><time>2026-05-02T22:50:01Z</time></trkpt>
<trkpt lat="50.395698" lon="4.269915"><time>2026-05-02T23:00:01Z</time></trkpt>
</trkseg></trk>
<trk>
<name>halal114</name>
<cmt>q</cmt>
<desc>Anderlues Sentier n°114 Rue Victor Larock / Rue Camille Lemonier / Rue de Bouchenies</desc>
<link href="https://chemins.be/anderlues/sentier/114"/><trkseg>
<trkpt lat="50.395698" lon="4.269915"><time>2026-05-02T23:00:01Z</time></trkpt>
<trkpt lat="50.395860" lon="4.269999"><time>2026-05-02T23:10:01Z</time></trkpt>
<trkpt lat="50.396849" lon="4.269336"><time>2026-05-02T23:20:01Z</time></trkpt>
</trkseg>
</trk>
<trk>
<name>halal115</name>
<cmt>s</cmt>
<desc>Anderlues Sentier n°115 </desc>
<link href="https://chemins.be/anderlues/sentier/115"/><trkseg>
<trkpt lat="50.404658" lon="4.290494"><time>2026-05-02T20:50:01Z</time></trkpt>
<trkpt lat="50.404882" lon="4.291048"><time>2026-05-02T21:00:01Z</time></trkpt>
<trkpt lat="50.405481" lon="4.291735"><time>2026-05-02T21:10:01Z</time></trkpt>
</trkseg>
</trk>
<trk>
<name>halal116</name>
<cmt>v</cmt>
<desc>Anderlues Sentier n°116 Rue Culot Fayt / ruelle Bonge / Rue de la Station / Chaussée de Thuin</desc>
<link href="https://chemins.be/anderlues/sentier/116"/><trkseg>
<trkpt lat="50.395708" lon="4.282207"><time>2026-05-02T20:50:01Z</time></trkpt>
<trkpt lat="50.396374" lon="4.282501"><time>2026-05-02T21:00:01Z</time></trkpt>
<trkpt lat="50.397965" lon="4.282766"><time>2026-05-02T21:10:01Z</time></trkpt>
<trkpt lat="50.398019" lon="4.282597"><time>2026-05-02T21:20:01Z</time></trkpt>
</trkseg></trk>
<trk>
<name>halal116</name>
<cmt>r</cmt>
<desc>Anderlues Sentier n°116 Rue Culot Fayt / ruelle Bonge / Rue de la Station / Chaussée de Thuin</desc>
<link href="https://chemins.be/anderlues/sentier/116"/><trkseg>
<trkpt lat="50.398019" lon="4.282597"><time>2026-05-02T21:20:01Z</time></trkpt>
<trkpt lat="50.398810" lon="4.282820"><time>2026-05-02T21:30:01Z</time></trkpt>
</trkseg></trk>
<trk>
<name>halal116</name>
<cmt>v</cmt>
<desc>Anderlues Sentier n°116 Rue Culot Fayt / ruelle Bonge / Rue de la Station / Chaussée de Thuin</desc>
<link href="https://chemins.be/anderlues/sentier/116"/><trkseg>
<trkpt lat="50.398810" lon="4.282820"><time>2026-05-02T21:30:01Z</time></trkpt>
<trkpt lat="50.398945" lon="4.283101"><time>2026-05-02T21:40:01Z</time></trkpt>
<trkpt lat="50.399521" lon="4.283663"><time>2026-05-02T21:50:01Z</time></trkpt>
<trkpt lat="50.399351" lon="4.284071"><time>2026-05-02T22:00:01Z</time></trkpt>
<trkpt lat="50.399891" lon="4.284914"><time>2026-05-02T22:10:01Z</time></trkpt>
<trkpt lat="50.399433" lon="4.286125"><time>2026-05-02T22:20:01Z</time></trkpt>
</trkseg></trk>
<trk>
<name>halal116</name>
<cmt>r</cmt>
<desc>Anderlues Sentier n°116 Rue Culot Fayt / ruelle Bonge / Rue de la Station / Chaussée de Thuin</desc>
<link href="https://chemins.be/anderlues/sentier/116"/><trkseg>
<trkpt lat="50.399433" lon="4.286125"><time>2026-05-02T22:20:01Z</time></trkpt>
<trkpt lat="50.399775" lon="4.286335"><time>2026-05-02T22:30:01Z</time></trkpt>
</trkseg></trk>
<trk>
<name>halal116</name>
<cmt>v</cmt>
<desc>Anderlues Sentier n°116 Rue Culot Fayt / ruelle Bonge / Rue de la Station / Chaussée de Thuin</desc>
<link href="https://chemins.be/anderlues/sentier/116"/><trkseg>
<trkpt lat="50.399775" lon="4.286335"><time>2026-05-02T22:30:01Z</time></trkpt>
<trkpt lat="50.399443" lon="4.288037"><time>2026-05-02T22:40:01Z</time></trkpt>
</trkseg>
</trk>
<trk>
<name>halal117</name>
<cmt>v</cmt>
<desc>Anderlues Sentier n°117 Cité Jardin du Fief / ruelle Degraive / ruelle degraive / Rue des Écoles / Rue du Vanériau</desc>
<link href="https://chemins.be/anderlues/sentier/117"/><trkseg>
<trkpt lat="50.395591" lon="4.282038"><time>2026-05-02T20:50:01Z</time></trkpt>
<trkpt lat="50.394934" lon="4.281013"><time>2026-05-02T21:00:01Z</time></trkpt>
<trkpt lat="50.394277" lon="4.279833"><time>2026-05-02T21:10:01Z</time></trkpt>
<trkpt lat="50.394340" lon="4.279622"><time>2026-05-02T21:20:01Z</time></trkpt>
<trkpt lat="50.394187" lon="4.279369"><time>2026-05-02T21:30:01Z</time></trkpt>
<trkpt lat="50.393917" lon="4.279468"><time>2026-05-02T21:40:01Z</time></trkpt>
<trkpt lat="50.393413" lon="4.278498"><time>2026-05-02T21:50:01Z</time></trkpt>
</trkseg></trk>
<trk>
<name>halal117</name>
<cmt>r</cmt>
<desc>Anderlues Sentier n°117 Cité Jardin du Fief / ruelle Degraive / ruelle degraive / Rue des Écoles / Rue du Vanériau</desc>
<link href="https://chemins.be/anderlues/sentier/117"/><trkseg>
<trkpt lat="50.393413" lon="4.278498"><time>2026-05-02T21:50:01Z</time></trkpt>
<trkpt lat="50.392810" lon="4.278218"><time>2026-05-02T22:00:01Z</time></trkpt>
</trkseg></trk>
<trk>
<name>halal117</name>
<cmt>v</cmt>
<desc>Anderlues Sentier n°117 Cité Jardin du Fief / ruelle Degraive / ruelle degraive / Rue des Écoles / Rue du Vanériau</desc>
<link href="https://chemins.be/anderlues/sentier/117"/><trkseg>
<trkpt lat="50.392810" lon="4.278218"><time>2026-05-02T22:00:01Z</time></trkpt>
<trkpt lat="50.392064" lon="4.277713"><time>2026-05-02T22:10:01Z</time></trkpt>
<trkpt lat="50.391857" lon="4.277489"><time>2026-05-02T22:20:01Z</time></trkpt>
</trkseg></trk>
<trk>
<name>halal117</name>
<cmt>r</cmt>
<desc>Anderlues Sentier n°117 Cité Jardin du Fief / ruelle Degraive / ruelle degraive / Rue des Écoles / Rue du Vanériau</desc>
<link href="https://chemins.be/anderlues/sentier/117"/><trkseg>
<trkpt lat="50.391857" lon="4.277489"><time>2026-05-02T22:20:01Z</time></trkpt>
<trkpt lat="50.389525" lon="4.273457"><time>2026-05-02T22:30:01Z</time></trkpt>
<trkpt lat="50.389792" lon="4.270729"><time>2026-05-02T22:40:01Z</time></trkpt>
<trkpt lat="50.389819" lon="4.269997"><time>2026-05-02T22:50:01Z</time></trkpt>
</trkseg></trk>
<trk>
<name>halal117</name>
<cmt>q</cmt>
<desc>Anderlues Sentier n°117 Cité Jardin du Fief / ruelle Degraive / ruelle degraive / Rue des Écoles / Rue du Vanériau</desc>
<link href="https://chemins.be/anderlues/sentier/117"/><trkseg>
<trkpt lat="50.389819" lon="4.269997"><time>2026-05-02T22:50:01Z</time></trkpt>
<trkpt lat="50.389612" lon="4.270026"><time>2026-05-02T23:00:01Z</time></trkpt>
<trkpt lat="50.389089" lon="4.268663"><time>2026-05-02T23:10:01Z</time></trkpt>
<trkpt lat="50.389052" lon="4.267214"><time>2026-05-02T23:20:01Z</time></trkpt>
<trkpt lat="50.388863" lon="4.267130"><time>2026-05-02T23:30:01Z</time></trkpt>
<trkpt lat="50.388719" lon="4.266231"><time>2026-05-02T23:40:01Z</time></trkpt>
</trkseg></trk>
<trk>
<name>halal117</name>
<cmt>r</cmt>
<desc>Anderlues Sentier n°117 Cité Jardin du Fief / ruelle Degraive / ruelle degraive / Rue des Écoles / Rue du Vanériau</desc>
<link href="https://chemins.be/anderlues/sentier/117"/><trkseg>
<trkpt lat="50.388719" lon="4.266231"><time>2026-05-02T23:40:01Z</time></trkpt>
<trkpt lat="50.388305" lon="4.265880"><time>2026-05-02T23:50:01Z</time></trkpt>
</trkseg></trk>
<trk>
<name>halal117</name>
<cmt>q</cmt>
<desc>Anderlues Sentier n°117 Cité Jardin du Fief / ruelle Degraive / ruelle degraive / Rue des Écoles / Rue du Vanériau</desc>
<link href="https://chemins.be/anderlues/sentier/117"/><trkseg>
<trkpt lat="50.388305" lon="4.265880"><time>2026-05-02T23:50:01Z</time></trkpt>
<trkpt lat="50.388025" lon="4.264812"><time>2026-05-03T00:00:01Z</time></trkpt>
<trkpt lat="50.388110" lon="4.264167"><time>2026-05-03T00:10:01Z</time></trkpt>
</trkseg></trk>
<trk>
<name>halal117</name>
<cmt>r</cmt>
<desc>Anderlues Sentier n°117 Cité Jardin du Fief / ruelle Degraive / ruelle degraive / Rue des Écoles / Rue du Vanériau</desc>
<link href="https://chemins.be/anderlues/sentier/117"/><trkseg>
<trkpt lat="50.388110" lon="4.264167"><time>2026-05-03T00:10:01Z</time></trkpt>
<trkpt lat="50.387442" lon="4.263440"><time>2026-05-03T00:20:01Z</time></trkpt>
<trkpt lat="50.387046" lon="4.262938"><time>2026-05-03T00:30:01Z</time></trkpt>
<trkpt lat="50.386898" lon="4.262436"><time>2026-05-03T00:40:01Z</time></trkpt>
<trkpt lat="50.387168" lon="4.261214"><time>2026-05-03T00:50:01Z</time></trkpt>
</trkseg></trk>
<trk>
<name>halal117</name>
<cmt>q</cmt>
<desc>Anderlues Sentier n°117 Cité Jardin du Fief / ruelle Degraive / ruelle degraive / Rue des Écoles / Rue du Vanériau</desc>
<link href="https://chemins.be/anderlues/sentier/117"/><trkseg>
<trkpt lat="50.387168" lon="4.261214"><time>2026-05-03T00:50:01Z</time></trkpt>
<trkpt lat="50.386357" lon="4.259149"><time>2026-05-03T01:00:01Z</time></trkpt>
<trkpt lat="50.383393" lon="4.253180"><time>2026-05-03T01:10:01Z</time></trkpt>
<trkpt lat="50.380826" lon="4.248631"><time>2026-05-03T01:20:01Z</time></trkpt>
</trkseg>
</trk>
<trk>
<name>halal117bis</name>
<cmt>q</cmt>
<desc>Anderlues Sentier n°117bis Rue Marie-Adrienne / Sentier Marie-Adrienne</desc>
<link href="https://chemins.be/anderlues/sentier/117bis"/><trkseg>
<trkpt lat="50.398633" lon="4.286421"><time>2026-05-02T20:50:01Z</time></trkpt>
<trkpt lat="50.399515" lon="4.288108"><time>2026-05-02T21:00:01Z</time></trkpt>
</trkseg></trk>
<trk>
<name>halal117bis</name>
<cmt>r</cmt>
<desc>Anderlues Sentier n°117bis Rue Marie-Adrienne / Sentier Marie-Adrienne</desc>
<link href="https://chemins.be/anderlues/sentier/117bis"/><trkseg>
<trkpt lat="50.399515" lon="4.288108"><time>2026-05-02T21:00:01Z</time></trkpt>
<trkpt lat="50.399866" lon="4.288037"><time>2026-05-02T21:10:01Z</time></trkpt>
</trkseg></trk>
<trk>
<name>halal117bis</name>
<cmt>v</cmt>
<desc>Anderlues Sentier n°117bis Rue Marie-Adrienne / Sentier Marie-Adrienne</desc>
<link href="https://chemins.be/anderlues/sentier/117bis"/><trkseg>
<trkpt lat="50.399866" lon="4.288037"><time>2026-05-02T21:10:01Z</time></trkpt>
<trkpt lat="50.400181" lon="4.289133"><time>2026-05-02T21:20:01Z</time></trkpt>
<trkpt lat="50.400613" lon="4.290005"><time>2026-05-02T21:30:01Z</time></trkpt>
<trkpt lat="50.401073" lon="4.290975"><time>2026-05-02T21:40:01Z</time></trkpt>
</trkseg>
</trk>
<trk>
<name>halal118</name>
<cmt>r</cmt>
<desc>Anderlues Sentier n°118 Rue Nananche</desc>
<link href="https://chemins.be/anderlues/sentier/118"/><trkseg>
<trkpt lat="50.397745" lon="4.289700"><time>2026-05-02T20:50:01Z</time></trkpt>
<trkpt lat="50.395937" lon="4.288493"><time>2026-05-02T21:00:01Z</time></trkpt>
</trkseg>
</trk>
<trk>
<name>halal119</name>
<cmt>q</cmt>
<desc>Anderlues Sentier n°119 </desc>
<link href="https://chemins.be/anderlues/sentier/119"/><trkseg>
<trkpt lat="50.396504" lon="4.288914"><time>2026-05-02T20:50:01Z</time></trkpt>
<trkpt lat="50.394132" lon="4.291745"><time>2026-05-02T21:00:01Z</time></trkpt>
</trkseg>
</trk>
<trk>
<name>halal12</name>
<cmt>v</cmt>
<desc>Anderlues Chemin n°12 </desc>
<link href="https://chemins.be/anderlues/chemin/12"/><trkseg>
<trkpt lat="50.388856" lon="4.249651"><time>2026-05-02T20:50:01Z</time></trkpt>
<trkpt lat="50.388508" lon="4.252661"><time>2026-05-02T21:00:01Z</time></trkpt>
</trkseg>
</trk>
<trk>
<name>halal121</name>
<cmt>q</cmt>
<desc>Anderlues Sentier n°121 </desc>
<link href="https://chemins.be/anderlues/sentier/121"/><trkseg>
<trkpt lat="50.396366" lon="4.284906"><time>2026-05-02T20:50:01Z</time></trkpt>
<trkpt lat="50.395612" lon="4.285850"><time>2026-05-02T21:00:01Z</time></trkpt>
<trkpt lat="50.393878" lon="4.287034"><time>2026-05-02T21:10:01Z</time></trkpt>
<trkpt lat="50.392072" lon="4.288612"><time>2026-05-02T21:20:01Z</time></trkpt>
</trkseg></trk>
<trk>
<name>halal121</name>
<cmt>v</cmt>
<desc>Anderlues Sentier n°121 </desc>
<link href="https://chemins.be/anderlues/sentier/121"/><trkseg>
<trkpt lat="50.392072" lon="4.288612"><time>2026-05-02T21:20:01Z</time></trkpt>
<trkpt lat="50.390984" lon="4.288797"><time>2026-05-02T21:30:01Z</time></trkpt>
</trkseg></trk>
<trk>
<name>halal121</name>
<cmt>q</cmt>
<desc>Anderlues Sentier n°121 </desc>
<link href="https://chemins.be/anderlues/sentier/121"/><trkseg>
<trkpt lat="50.390984" lon="4.288797"><time>2026-05-02T21:30:01Z</time></trkpt>
<trkpt lat="50.389366" lon="4.289390"><time>2026-05-02T21:40:01Z</time></trkpt>
</trkseg></trk>
<trk>
<name>halal121</name>
<cmt>s</cmt>
<desc>Anderlues Sentier n°121 </desc>
<link href="https://chemins.be/anderlues/sentier/121"/><trkseg>
<trkpt lat="50.389366" lon="4.289390"><time>2026-05-02T21:40:01Z</time></trkpt>
<trkpt lat="50.388512" lon="4.289237"><time>2026-05-02T21:50:01Z</time></trkpt>
</trkseg></trk>
<trk>
<name>halal121</name>
<cmt>v</cmt>
<desc>Anderlues Sentier n°121 </desc>
<link href="https://chemins.be/anderlues/sentier/121"/><trkseg>
<trkpt lat="50.388512" lon="4.289237"><time>2026-05-02T21:50:01Z</time></trkpt>
<trkpt lat="50.388080" lon="4.289393"><time>2026-05-02T22:00:01Z</time></trkpt>
</trkseg>
</trk>
<trk>
<name>halal122</name>
<cmt>q</cmt>
<desc>Anderlues Sentier n°122 </desc>
<link href="https://chemins.be/anderlues/sentier/122"/><trkseg>
<trkpt lat="50.392448" lon="4.281331"><time>2026-05-02T20:50:01Z</time></trkpt>
<trkpt lat="50.391394" lon="4.281846"><time>2026-05-02T21:00:01Z</time></trkpt>
<trkpt lat="50.390989" lon="4.282390"><time>2026-05-02T21:10:01Z</time></trkpt>
<trkpt lat="50.390861" lon="4.283141"><time>2026-05-02T21:20:01Z</time></trkpt>
<trkpt lat="50.390227" lon="4.284314"><time>2026-05-02T21:30:01Z</time></trkpt>
<trkpt lat="50.390090" lon="4.284714"><time>2026-05-02T21:40:01Z</time></trkpt>
<trkpt lat="50.388968" lon="4.286753"><time>2026-05-02T21:50:01Z</time></trkpt>
</trkseg></trk>
<trk>
<name>halal122</name>
<cmt>r</cmt>
<desc>Anderlues Sentier n°122 </desc>
<link href="https://chemins.be/anderlues/sentier/122"/><trkseg>
<trkpt lat="50.388968" lon="4.286753"><time>2026-05-02T21:50:01Z</time></trkpt>
<trkpt lat="50.389078" lon="4.287389"><time>2026-05-02T22:00:01Z</time></trkpt>
</trkseg></trk>
<trk>
<name>halal122</name>
<cmt>q</cmt>
<desc>Anderlues Sentier n°122 </desc>
<link href="https://chemins.be/anderlues/sentier/122"/><trkseg>
<trkpt lat="50.389078" lon="4.287389"><time>2026-05-02T22:00:01Z</time></trkpt>
<trkpt lat="50.388481" lon="4.289192"><time>2026-05-02T22:10:01Z</time></trkpt>
</trkseg>
</trk>
<trk>
<name>halal123</name>
<cmt>v</cmt>
<desc>Anderlues Sentier n°123 Rue à Dettes</desc>
<link href="https://chemins.be/anderlues/sentier/123"/><trkseg>
<trkpt lat="50.391677" lon="4.277264"><time>2026-05-02T20:50:01Z</time></trkpt>
<trkpt lat="50.391470" lon="4.277686"><time>2026-05-02T21:00:01Z</time></trkpt>
<trkpt lat="50.390922" lon="4.278025"><time>2026-05-02T21:10:01Z</time></trkpt>
<trkpt lat="50.389718" lon="4.278463"><time>2026-05-02T21:20:01Z</time></trkpt>
<trkpt lat="50.389718" lon="4.278674"><time>2026-05-02T21:30:01Z</time></trkpt>
<trkpt lat="50.388073" lon="4.279169"><time>2026-05-02T21:40:01Z</time></trkpt>
<trkpt lat="50.388109" lon="4.279605"><time>2026-05-02T21:50:01Z</time></trkpt>
<trkpt lat="50.387193" lon="4.279874"><time>2026-05-02T22:00:01Z</time></trkpt>
<trkpt lat="50.387148" lon="4.280479"><time>2026-05-02T22:10:01Z</time></trkpt>
</trkseg>
</trk>
<trk>
<name>halal124</name>
<cmt>q</cmt>
<desc>Anderlues Sentier n°124 Rue des Cent Bonniers</desc>
<link href="https://chemins.be/anderlues/sentier/124"/><trkseg>
<trkpt lat="50.390128" lon="4.274722"><time>2026-05-02T20:50:01Z</time></trkpt>
<trkpt lat="50.389328" lon="4.274962"><time>2026-05-02T21:00:01Z</time></trkpt>
</trkseg></trk>
<trk>
<name>halal124</name>
<cmt>r</cmt>
<desc>Anderlues Sentier n°124 Rue des Cent Bonniers</desc>
<link href="https://chemins.be/anderlues/sentier/124"/><trkseg>
<trkpt lat="50.389328" lon="4.274962"><time>2026-05-02T21:00:01Z</time></trkpt>
<trkpt lat="50.389356" lon="4.275778"><time>2026-05-02T21:10:01Z</time></trkpt>
<trkpt lat="50.389501" lon="4.277142"><time>2026-05-02T21:20:01Z</time></trkpt>
</trkseg></trk>
<trk>
<name>halal124</name>
<cmt>q</cmt>
<desc>Anderlues Sentier n°124 Rue des Cent Bonniers</desc>
<link href="https://chemins.be/anderlues/sentier/124"/><trkseg>
<trkpt lat="50.389501" lon="4.277142"><time>2026-05-02T21:20:01Z</time></trkpt>
<trkpt lat="50.387928" lon="4.277510"><time>2026-05-02T21:30:01Z</time></trkpt>
</trkseg>
</trk>
<trk>
<name>halal125</name>
<cmt>v</cmt>
<desc>Anderlues Sentier n°125 </desc>
<link href="https://chemins.be/anderlues/sentier/125"/><trkseg>
<trkpt lat="50.383674" lon="4.265440"><time>2026-05-02T20:50:01Z</time></trkpt>
<trkpt lat="50.383404" lon="4.264569"><time>2026-05-02T21:00:01Z</time></trkpt>
</trkseg>
</trk>
<trk>
<name>halal126</name>
<cmt>v</cmt>
<desc>Anderlues Sentier n°126 </desc>
<link href="https://chemins.be/anderlues/sentier/126"/><trkseg>
<trkpt lat="50.391276" lon="4.270951"><time>2026-05-02T20:50:01Z</time></trkpt>
<trkpt lat="50.391690" lon="4.271161"><time>2026-05-02T21:00:01Z</time></trkpt>
<trkpt lat="50.392787" lon="4.272016"><time>2026-05-02T21:10:01Z</time></trkpt>
</trkseg>
</trk>
<trk>
<name>halal127</name>
<cmt>q</cmt>
<desc>Anderlues Sentier n°127 </desc>
<link href="https://chemins.be/anderlues/sentier/127"/><trkseg>
<trkpt lat="50.390294" lon="4.265868"><time>2026-05-02T20:50:01Z</time></trkpt>
<trkpt lat="50.391906" lon="4.267287"><time>2026-05-02T21:00:01Z</time></trkpt>
</trkseg></trk>
<trk>
<name>halal127</name>
<cmt>r</cmt>
<desc>Anderlues Sentier n°127 </desc>
<link href="https://chemins.be/anderlues/sentier/127"/><trkseg>
<trkpt lat="50.391906" lon="4.267287"><time>2026-05-02T21:00:01Z</time></trkpt>
<trkpt lat="50.392494" lon="4.267673"><time>2026-05-02T21:10:01Z</time></trkpt>
</trkseg></trk>
<trk>
<name>halal127</name>
<cmt>q</cmt>
<desc>Anderlues Sentier n°127 </desc>
<link href="https://chemins.be/anderlues/sentier/127"/><trkseg>
<trkpt lat="50.392494" lon="4.267673"><time>2026-05-02T21:10:01Z</time></trkpt>
<trkpt lat="50.393459" lon="4.267197"><time>2026-05-02T21:20:01Z</time></trkpt>
<trkpt lat="50.395186" lon="4.266343"><time>2026-05-02T21:30:01Z</time></trkpt>
<trkpt lat="50.396807" lon="4.266089"><time>2026-05-02T21:40:01Z</time></trkpt>
<trkpt lat="50.397217" lon="4.265624"><time>2026-05-02T21:50:01Z</time></trkpt>
<trkpt lat="50.397308" lon="4.264673"><time>2026-05-02T22:00:01Z</time></trkpt>
<trkpt lat="50.397746" lon="4.264201"><time>2026-05-02T22:10:01Z</time></trkpt>
</trkseg>
</trk>
<trk>
<name>halal128</name>
<cmt>q</cmt>
<desc>Anderlues Sentier n°128 Rue de l'Image</desc>
<link href="https://chemins.be/anderlues/sentier/128"/><trkseg>
<trkpt lat="50.399633" lon="4.265276"><time>2026-05-02T20:50:01Z</time></trkpt>
<trkpt lat="50.399592" lon="4.265871"><time>2026-05-02T21:00:01Z</time></trkpt>
<trkpt lat="50.399770" lon="4.265930"><time>2026-05-02T21:10:01Z</time></trkpt>
<trkpt lat="50.400098" lon="4.266584"><time>2026-05-02T21:20:01Z</time></trkpt>
<trkpt lat="50.400778" lon="4.267250"><time>2026-05-02T21:30:01Z</time></trkpt>
</trkseg></trk>
<trk>
<name>halal128</name>
<cmt>r</cmt>
<desc>Anderlues Sentier n°128 Rue de l'Image</desc>
<link href="https://chemins.be/anderlues/sentier/128"/><trkseg>
<trkpt lat="50.400778" lon="4.267250"><time>2026-05-02T21:30:01Z</time></trkpt>
<trkpt lat="50.401100" lon="4.266601"><time>2026-05-02T21:40:01Z</time></trkpt>
</trkseg></trk>
<trk>
<name>halal128</name>
<cmt>q</cmt>
<desc>Anderlues Sentier n°128 Rue de l'Image</desc>
<link href="https://chemins.be/anderlues/sentier/128"/><trkseg>
<trkpt lat="50.401100" lon="4.266601"><time>2026-05-02T21:40:01Z</time></trkpt>
<trkpt lat="50.401732" lon="4.266558"><time>2026-05-02T21:50:01Z</time></trkpt>
<trkpt lat="50.402874" lon="4.266112"><time>2026-05-02T22:00:01Z</time></trkpt>
</trkseg>
</trk>
<trk>
<name>halal129</name>
<cmt>q</cmt>
<desc>Anderlues Sentier n°129 </desc>
<link href="https://chemins.be/anderlues/sentier/129"/><trkseg>
<trkpt lat="50.398180" lon="4.265785"><time>2026-05-02T20:50:01Z</time></trkpt>
<trkpt lat="50.398679" lon="4.267679"><time>2026-05-02T21:00:01Z</time></trkpt>
</trkseg>
</trk>
<trk>
<name>halal130</name>
<cmt>q</cmt>
<desc>Anderlues Sentier n°130 </desc>
<link href="https://chemins.be/anderlues/sentier/130"/><trkseg>
<trkpt lat="50.400190" lon="4.265565"><time>2026-05-02T20:50:01Z</time></trkpt>
<trkpt lat="50.400536" lon="4.264026"><time>2026-05-02T21:00:01Z</time></trkpt>
</trkseg>
</trk>
<trk>
<name>halal131</name>
<cmt>q</cmt>
<desc>Anderlues Sentier n°131 Rue Deseur les Fontaines</desc>
<link href="https://chemins.be/anderlues/sentier/131"/><trkseg>
<trkpt lat="50.402845" lon="4.265313"><time>2026-05-02T20:50:01Z</time></trkpt>
<trkpt lat="50.401067" lon="4.262738"><time>2026-05-02T21:00:01Z</time></trkpt>
<trkpt lat="50.398838" lon="4.256676"><time>2026-05-02T21:10:01Z</time></trkpt>
<trkpt lat="50.398328" lon="4.253668"><time>2026-05-02T21:20:01Z</time></trkpt>
<trkpt lat="50.397852" lon="4.252355"><time>2026-05-02T21:30:01Z</time></trkpt>
</trkseg></trk>
<trk>
<name>halal131</name>
<cmt>r</cmt>
<desc>Anderlues Sentier n°131 Rue Deseur les Fontaines</desc>
<link href="https://chemins.be/anderlues/sentier/131"/><trkseg>
<trkpt lat="50.397852" lon="4.252355"><time>2026-05-02T21:30:01Z</time></trkpt>
<trkpt lat="50.397521" lon="4.251505"><time>2026-05-02T21:40:01Z</time></trkpt>
<trkpt lat="50.397352" lon="4.250776"><time>2026-05-02T21:50:01Z</time></trkpt>
<trkpt lat="50.396658" lon="4.250114"><time>2026-05-02T22:00:01Z</time></trkpt>
<trkpt lat="50.396585" lon="4.247625"><time>2026-05-02T22:10:01Z</time></trkpt>
<trkpt lat="50.395299" lon="4.242818"><time>2026-05-02T22:20:01Z</time></trkpt>
</trkseg>
</trk>
<trk>
<name>halal132</name>
<cmt>q</cmt>
<desc>Anderlues Sentier n°132 Rue du Château d'Eau / Rue d'Ansuelle / Impasse Conreur</desc>
<link href="https://chemins.be/anderlues/sentier/132"/><trkseg>
<trkpt lat="50.405405" lon="4.265227"><time>2026-05-02T20:50:01Z</time></trkpt>
<trkpt lat="50.403095" lon="4.261715"><time>2026-05-02T21:00:01Z</time></trkpt>
<trkpt lat="50.400135" lon="4.257674"><time>2026-05-02T21:10:01Z</time></trkpt>
</trkseg></trk>
<trk>
<name>halal132</name>
<cmt>r</cmt>
<desc>Anderlues Sentier n°132 Rue du Château d'Eau / Rue d'Ansuelle / Impasse Conreur</desc>
<link href="https://chemins.be/anderlues/sentier/132"/><trkseg>
<trkpt lat="50.400135" lon="4.257674"><time>2026-05-02T21:10:01Z</time></trkpt>
<trkpt lat="50.398256" lon="4.256186"><time>2026-05-02T21:20:01Z</time></trkpt>
<trkpt lat="50.395321" lon="4.252363"><time>2026-05-02T21:30:01Z</time></trkpt>
<trkpt lat="50.393474" lon="4.249388"><time>2026-05-02T21:40:01Z</time></trkpt>
<trkpt lat="50.394116" lon="4.247146"><time>2026-05-02T21:50:01Z</time></trkpt>
<trkpt lat="50.393843" lon="4.247060"><time>2026-05-02T22:00:01Z</time></trkpt>
<trkpt lat="50.393508" lon="4.246988"><time>2026-05-02T22:10:01Z</time></trkpt>
<trkpt lat="50.392123" lon="4.246033"><time>2026-05-02T22:20:01Z</time></trkpt>
</trkseg></trk>
<trk>
<name>halal132</name>
<cmt>q</cmt>
<desc>Anderlues Sentier n°132 Rue du Château d'Eau / Rue d'Ansuelle / Impasse Conreur</desc>
<link href="https://chemins.be/anderlues/sentier/132"/><trkseg>
<trkpt lat="50.392123" lon="4.246033"><time>2026-05-02T22:20:01Z</time></trkpt>
<trkpt lat="50.391903" lon="4.245808"><time>2026-05-02T22:30:01Z</time></trkpt>
<trkpt lat="50.390497" lon="4.242332"><time>2026-05-02T22:40:01Z</time></trkpt>
<trkpt lat="50.389418" lon="4.237598"><time>2026-05-02T22:50:01Z</time></trkpt>
<trkpt lat="50.389562" lon="4.237260"><time>2026-05-02T23:00:01Z</time></trkpt>
</trkseg></trk>
<trk>
<name>halal132</name>
<cmt>v</cmt>
<desc>Anderlues Sentier n°132 Rue du Château d'Eau / Rue d'Ansuelle / Impasse Conreur</desc>
<link href="https://chemins.be/anderlues/sentier/132"/><trkseg>
<trkpt lat="50.389562" lon="4.237260"><time>2026-05-02T23:00:01Z</time></trkpt>
<trkpt lat="50.389111" lon="4.235911"><time>2026-05-02T23:10:01Z</time></trkpt>
<trkpt lat="50.388804" lon="4.235125"><time>2026-05-02T23:20:01Z</time></trkpt>
<trkpt lat="50.388459" lon="4.232426"><time>2026-05-02T23:30:01Z</time></trkpt>
</trkseg>
</trk>
<trk>
<name>halal133</name>
<cmt>q</cmt>
<desc>Anderlues Sentier n°133 </desc>
<link href="https://chemins.be/anderlues/sentier/133"/><trkseg>
<trkpt lat="50.399233" lon="4.263107"><time>2026-05-02T20:50:01Z</time></trkpt>
<trkpt lat="50.399169" lon="4.262663"><time>2026-05-02T21:00:01Z</time></trkpt>
<trkpt lat="50.399497" lon="4.259623"><time>2026-05-02T21:10:01Z</time></trkpt>
<trkpt lat="50.399657" lon="4.258887"><time>2026-05-02T21:20:01Z</time></trkpt>
</trkseg>
</trk>
<trk>
<name>halal134</name>
<cmt>q</cmt>
<desc>Anderlues Sentier n°134 Rue de la Taillette</desc>
<link href="https://chemins.be/anderlues/sentier/134"/><trkseg>
<trkpt lat="50.403061" lon="4.261853"><time>2026-05-02T20:50:01Z</time></trkpt>
<trkpt lat="50.403140" lon="4.263795"><time>2026-05-02T21:00:01Z</time></trkpt>
<trkpt lat="50.402774" lon="4.265190"><time>2026-05-02T21:10:01Z</time></trkpt>
</trkseg>
</trk>
<trk>
<name>halal135</name>
<cmt>q</cmt>
<desc>Anderlues Sentier n°135 </desc>
<link href="https://chemins.be/anderlues/sentier/135"/><trkseg>
<trkpt lat="50.405411" lon="4.257495"><time>2026-05-02T20:50:01Z</time></trkpt>
<trkpt lat="50.405010" lon="4.257367"><time>2026-05-02T21:00:01Z</time></trkpt>
<trkpt lat="50.403608" lon="4.259054"><time>2026-05-02T21:10:01Z</time></trkpt>
<trkpt lat="50.403168" lon="4.259584"><time>2026-05-02T21:20:01Z</time></trkpt>
</trkseg>
</trk>
<trk>
<name>halal136</name>
<cmt>v</cmt>
<desc>Anderlues Sentier n°136 </desc>
<link href="https://chemins.be/anderlues/sentier/136"/><trkseg>
<trkpt lat="50.404187" lon="4.252734"><time>2026-05-02T20:50:01Z</time></trkpt>
<trkpt lat="50.404071" lon="4.252068"><time>2026-05-02T21:00:01Z</time></trkpt>
</trkseg></trk>
<trk>
<name>halal136</name>
<cmt>q</cmt>
<desc>Anderlues Sentier n°136 </desc>
<link href="https://chemins.be/anderlues/sentier/136"/><trkseg>
<trkpt lat="50.404071" lon="4.252068"><time>2026-05-02T21:00:01Z</time></trkpt>
<trkpt lat="50.404246" lon="4.251028"><time>2026-05-02T21:10:01Z</time></trkpt>
<trkpt lat="50.404635" lon="4.249606"><time>2026-05-02T21:20:01Z</time></trkpt>
<trkpt lat="50.404805" lon="4.248075"><time>2026-05-02T21:30:01Z</time></trkpt>
<trkpt lat="50.405305" lon="4.243547"><time>2026-05-02T21:40:01Z</time></trkpt>
</trkseg>
</trk>
<trk>
<name>halal137</name>
<cmt>q</cmt>
<desc>Anderlues Sentier n°137 </desc>
<link href="https://chemins.be/anderlues/sentier/137"/><trkseg>
<trkpt lat="50.406300" lon="4.246865"><time>2026-05-02T20:50:01Z</time></trkpt>
<trkpt lat="50.405897" lon="4.246468"><time>2026-05-02T21:00:01Z</time></trkpt>
<trkpt lat="50.405675" lon="4.245792"><time>2026-05-02T21:10:01Z</time></trkpt>
<trkpt lat="50.405729" lon="4.245610"><time>2026-05-02T21:20:01Z</time></trkpt>
<trkpt lat="50.405408" lon="4.244714"><time>2026-05-02T21:30:01Z</time></trkpt>
<trkpt lat="50.405299" lon="4.243544"><time>2026-05-02T21:40:01Z</time></trkpt>
</trkseg>
</trk>
<trk>
<name>halal138</name>
<cmt>q</cmt>
<desc>Anderlues Sentier n°138 </desc>
<link href="https://chemins.be/anderlues/sentier/138"/><trkseg>
<trkpt lat="50.404777" lon="4.248104"><time>2026-05-02T20:50:01Z</time></trkpt>
<trkpt lat="50.402288" lon="4.251795"><time>2026-05-02T21:00:01Z</time></trkpt>
<trkpt lat="50.400688" lon="4.253426"><time>2026-05-02T21:10:01Z</time></trkpt>
<trkpt lat="50.397747" lon="4.253812"><time>2026-05-02T21:20:01Z</time></trkpt>
<trkpt lat="50.396936" lon="4.254211"><time>2026-05-02T21:30:01Z</time></trkpt>
<trkpt lat="50.395437" lon="4.255164"><time>2026-05-02T21:40:01Z</time></trkpt>
</trkseg>
</trk>
<trk>
<name>halal139</name>
<cmt>r</cmt>
<desc>Anderlues Sentier n°139 Chemin des Gras Prés</desc>
<link href="https://chemins.be/anderlues/sentier/139"/><trkseg>
<trkpt lat="50.404849" lon="4.248126"><time>2026-05-02T20:50:01Z</time></trkpt>
<trkpt lat="50.404081" lon="4.247872"><time>2026-05-02T21:00:01Z</time></trkpt>
</trkseg></trk>
<trk>
<name>halal139</name>
<cmt>q</cmt>
<desc>Anderlues Sentier n°139 Chemin des Gras Prés</desc>
<link href="https://chemins.be/anderlues/sentier/139"/><trkseg>
<trkpt lat="50.404081" lon="4.247872"><time>2026-05-02T21:00:01Z</time></trkpt>
<trkpt lat="50.402086" lon="4.247214"><time>2026-05-02T21:10:01Z</time></trkpt>
<trkpt lat="50.400151" lon="4.247986"><time>2026-05-02T21:20:01Z</time></trkpt>
<trkpt lat="50.398934" lon="4.248126"><time>2026-05-02T21:30:01Z</time></trkpt>
<trkpt lat="50.398428" lon="4.247739"><time>2026-05-02T21:40:01Z</time></trkpt>
<trkpt lat="50.397757" lon="4.248093"><time>2026-05-02T21:50:01Z</time></trkpt>
<trkpt lat="50.395116" lon="4.246656"><time>2026-05-02T22:00:01Z</time></trkpt>
</trkseg>
</trk>
<trk>
<name>halal14</name>
<cmt>v</cmt>
<desc>Anderlues Chemin n°14 </desc>
<link href="https://chemins.be/anderlues/chemin/14"/><trkseg>
<trkpt lat="50.424161" lon="4.293006"><time>2026-05-02T20:50:01Z</time></trkpt>
<trkpt lat="50.425229" lon="4.290823"><time>2026-05-02T21:00:01Z</time></trkpt>
<trkpt lat="50.425516" lon="4.289021"><time>2026-05-02T21:10:01Z</time></trkpt>
<trkpt lat="50.426728" lon="4.286359"><time>2026-05-02T21:20:01Z</time></trkpt>
<trkpt lat="50.427922" lon="4.284766"><time>2026-05-02T21:30:01Z</time></trkpt>
</trkseg>
</trk>
<trk>
<name>halal140</name>
<cmt>q</cmt>
<desc>Anderlues Sentier n°140 </desc>
<link href="https://chemins.be/anderlues/sentier/140"/><trkseg>
<trkpt lat="50.393810" lon="4.249695"><time>2026-05-02T20:50:01Z</time></trkpt>
<trkpt lat="50.394502" lon="4.249524"><time>2026-05-02T21:00:01Z</time></trkpt>
<trkpt lat="50.396012" lon="4.249872"><time>2026-05-02T21:10:01Z</time></trkpt>
</trkseg></trk>
<trk>
<name>halal140</name>
<cmt>v</cmt>
<desc>Anderlues Sentier n°140 </desc>
<link href="https://chemins.be/anderlues/sentier/140"/><trkseg>
<trkpt lat="50.396012" lon="4.249872"><time>2026-05-02T21:10:01Z</time></trkpt>
<trkpt lat="50.396687" lon="4.250096"><time>2026-05-02T21:20:01Z</time></trkpt>
</trkseg>
</trk>
<trk>
<name>halal141</name>
<cmt>q</cmt>
<desc>Anderlues Sentier n°141 </desc>
<link href="https://chemins.be/anderlues/sentier/141"/><trkseg>
<trkpt lat="50.394993" lon="4.255050"><time>2026-05-02T20:50:01Z</time></trkpt>
<trkpt lat="50.394802" lon="4.253321"><time>2026-05-02T21:00:01Z</time></trkpt>
<trkpt lat="50.394945" lon="4.251858"><time>2026-05-02T21:10:01Z</time></trkpt>
<trkpt lat="50.394899" lon="4.251619"><time>2026-05-02T21:20:01Z</time></trkpt>
</trkseg></trk>
<trk>
<name>halal141</name>
<cmt>v</cmt>
<desc>Anderlues Sentier n°141 </desc>
<link href="https://chemins.be/anderlues/sentier/141"/><trkseg>
<trkpt lat="50.394899" lon="4.251619"><time>2026-05-02T21:20:01Z</time></trkpt>
<trkpt lat="50.395887" lon="4.249957"><time>2026-05-02T21:30:01Z</time></trkpt>
</trkseg>
</trk>
<trk>
<name>halal142</name>
<cmt>q</cmt>
<desc>Anderlues Sentier n°142 </desc>
<link href="https://chemins.be/anderlues/sentier/142"/><trkseg>
<trkpt lat="50.390637" lon="4.265045"><time>2026-05-02T20:50:01Z</time></trkpt>
<trkpt lat="50.391342" lon="4.262524"><time>2026-05-02T21:00:01Z</time></trkpt>
<trkpt lat="50.391410" lon="4.261440"><time>2026-05-02T21:10:01Z</time></trkpt>
<trkpt lat="50.392646" lon="4.258883"><time>2026-05-02T21:20:01Z</time></trkpt>
<trkpt lat="50.394392" lon="4.255271"><time>2026-05-02T21:30:01Z</time></trkpt>
<trkpt lat="50.394878" lon="4.254016"><time>2026-05-02T21:40:01Z</time></trkpt>
</trkseg>
</trk>
<trk>
<name>halal143</name>
<cmt>d</cmt>
<desc>Anderlues Sentier n°143 </desc>
<link href="https://chemins.be/anderlues/sentier/143"/><trkseg>
<trkpt lat="50.381027" lon="4.242795"><time>2026-05-02T20:50:01Z</time></trkpt>
<trkpt lat="50.383484" lon="4.245080"><time>2026-05-02T21:00:01Z</time></trkpt>
</trkseg></trk>
<trk>
<name>halal143</name>
<cmt>v</cmt>
<desc>Anderlues Sentier n°143 </desc>
<link href="https://chemins.be/anderlues/sentier/143"/><trkseg>
<trkpt lat="50.383484" lon="4.245080"><time>2026-05-02T21:00:01Z</time></trkpt>
<trkpt lat="50.386426" lon="4.247506"><time>2026-05-02T21:10:01Z</time></trkpt>
<trkpt lat="50.386678" lon="4.247955"><time>2026-05-02T21:20:01Z</time></trkpt>
<trkpt lat="50.388820" lon="4.249567"><time>2026-05-02T21:30:01Z</time></trkpt>
</trkseg>
</trk>
<trk>
<name>halal144</name>
<cmt>q</cmt>
<desc>Anderlues Sentier n°144 </desc>
<link href="https://chemins.be/anderlues/sentier/144"/><trkseg>
<trkpt lat="50.391318" lon="4.255507"><time>2026-05-02T20:50:01Z</time></trkpt>
<trkpt lat="50.391113" lon="4.253426"><time>2026-05-02T21:00:01Z</time></trkpt>
<trkpt lat="50.391549" lon="4.249241"><time>2026-05-02T21:10:01Z</time></trkpt>
</trkseg></trk>
<trk>
<name>halal144</name>
<cmt>v</cmt>
<desc>Anderlues Sentier n°144 </desc>
<link href="https://chemins.be/anderlues/sentier/144"/><trkseg>
<trkpt lat="50.391549" lon="4.249241"><time>2026-05-02T21:10:01Z</time></trkpt>
<trkpt lat="50.392084" lon="4.246001"><time>2026-05-02T21:20:01Z</time></trkpt>
<trkpt lat="50.391920" lon="4.245765"><time>2026-05-02T21:30:01Z</time></trkpt>
</trkseg></trk>
<trk>
<name>halal144</name>
<cmt>q</cmt>
<desc>Anderlues Sentier n°144 </desc>
<link href="https://chemins.be/anderlues/sentier/144"/><trkseg>
<trkpt lat="50.391920" lon="4.245765"><time>2026-05-02T21:30:01Z</time></trkpt>
<trkpt lat="50.392416" lon="4.244246"><time>2026-05-02T21:40:01Z</time></trkpt>
<trkpt lat="50.393368" lon="4.243001"><time>2026-05-02T21:50:01Z</time></trkpt>
<trkpt lat="50.394025" lon="4.240178"><time>2026-05-02T22:00:01Z</time></trkpt>
<trkpt lat="50.394747" lon="4.238015"><time>2026-05-02T22:10:01Z</time></trkpt>
</trkseg>
</trk>
<trk>
<name>halal145</name>
<cmt>q</cmt>
<desc>Anderlues Sentier n°145 </desc>
<link href="https://chemins.be/anderlues/sentier/145"/><trkseg>
<trkpt lat="50.391855" lon="4.245787"><time>2026-05-02T20:50:01Z</time></trkpt>
<trkpt lat="50.388407" lon="4.242579"><time>2026-05-02T21:00:01Z</time></trkpt>
</trkseg>
</trk>
<trk>
<name>halal146</name>
<cmt>q</cmt>
<desc>Anderlues Sentier n°146 </desc>
<link href="https://chemins.be/anderlues/sentier/146"/><trkseg>
<trkpt lat="50.388840" lon="4.249542"><time>2026-05-02T20:50:01Z</time></trkpt>
<trkpt lat="50.387698" lon="4.250695"><time>2026-05-02T21:00:01Z</time></trkpt>
<trkpt lat="50.387338" lon="4.252042"><time>2026-05-02T21:10:01Z</time></trkpt>
</trkseg>
</trk>
<trk>
<name>halal147</name>
<cmt>q</cmt>
<desc>Anderlues Sentier n°147 </desc>
<link href="https://chemins.be/anderlues/sentier/147"/><trkseg>
<trkpt lat="50.388165" lon="4.259408"><time>2026-05-02T20:50:01Z</time></trkpt>
<trkpt lat="50.389278" lon="4.258946"><time>2026-05-02T21:00:01Z</time></trkpt>
</trkseg>
</trk>
<trk>
<name>halal15</name>
<cmt>r</cmt>
<desc>Anderlues Chemin n°15 Rue du Macau</desc>
<link href="https://chemins.be/anderlues/chemin/15"/><trkseg>
<trkpt lat="50.396690" lon="4.270257"><time>2026-05-02T20:50:01Z</time></trkpt>
<trkpt lat="50.396865" lon="4.269073"><time>2026-05-02T21:00:01Z</time></trkpt>
<trkpt lat="50.397018" lon="4.266062"><time>2026-05-02T21:10:01Z</time></trkpt>
<trkpt lat="50.396932" lon="4.265484"><time>2026-05-02T21:20:01Z</time></trkpt>
</trkseg></trk>
<trk>
<name>halal15</name>
<cmt>v</cmt>
<desc>Anderlues Chemin n°15 Rue du Macau</desc>
<link href="https://chemins.be/anderlues/chemin/15"/><trkseg>
<trkpt lat="50.396932" lon="4.265484"><time>2026-05-02T21:20:01Z</time></trkpt>
<trkpt lat="50.396763" lon="4.264357"><time>2026-05-02T21:30:01Z</time></trkpt>
<trkpt lat="50.396232" lon="4.263556"><time>2026-05-02T21:40:01Z</time></trkpt>
<trkpt lat="50.395746" lon="4.262137"><time>2026-05-02T21:50:01Z</time></trkpt>
<trkpt lat="50.395293" lon="4.258495"><time>2026-05-02T22:00:01Z</time></trkpt>
<trkpt lat="50.395033" lon="4.256450"><time>2026-05-02T22:10:01Z</time></trkpt>
<trkpt lat="50.394985" lon="4.255212"><time>2026-05-02T22:20:01Z</time></trkpt>
</trkseg>
</trk>
<trk>
<name>halal17</name>
<cmt>r</cmt>
<desc>Anderlues Chemin n°17 Chemin des Blancs Bos</desc>
<link href="https://chemins.be/anderlues/chemin/17"/><trkseg>
<trkpt lat="50.396900" lon="4.266059"><time>2026-05-02T20:50:01Z</time></trkpt>
<trkpt lat="50.395470" lon="4.265541"><time>2026-05-02T21:00:01Z</time></trkpt>
</trkseg></trk>
<trk>
<name>halal17</name>
<cmt>v</cmt>
<desc>Anderlues Chemin n°17 Chemin des Blancs Bos</desc>
<link href="https://chemins.be/anderlues/chemin/17"/><trkseg>
<trkpt lat="50.395470" lon="4.265541"><time>2026-05-02T21:00:01Z</time></trkpt>
<trkpt lat="50.392331" lon="4.263917"><time>2026-05-02T21:10:01Z</time></trkpt>
</trkseg>
</trk>
<trk>
<name>halal18</name>
<cmt>v</cmt>
<desc>Anderlues Chemin n°18 Chemin de Warimez</desc>
<link href="https://chemins.be/anderlues/chemin/18"/><trkseg>
<trkpt lat="50.423646" lon="4.255810"><time>2026-05-02T20:50:01Z</time></trkpt>
<trkpt lat="50.423676" lon="4.253832"><time>2026-05-02T21:00:01Z</time></trkpt>
<trkpt lat="50.423530" lon="4.252177"><time>2026-05-02T21:10:01Z</time></trkpt>
</trkseg>
</trk>
<trk>
<name>halal19</name>
<cmt>v</cmt>
<desc>Anderlues Chemin n°19 </desc>
<link href="https://chemins.be/anderlues/chemin/19"/><trkseg>
<trkpt lat="50.386657" lon="4.267089"><time>2026-05-02T20:50:01Z</time></trkpt>
<trkpt lat="50.385127" lon="4.267691"><time>2026-05-02T21:00:01Z</time></trkpt>
<trkpt lat="50.383731" lon="4.269294"><time>2026-05-02T21:10:01Z</time></trkpt>
</trkseg>
</trk>
<trk>
<name>halal2</name>
<cmt>r</cmt>
<desc>Anderlues Chemin n°2 Chemin Noir</desc>
<link href="https://chemins.be/anderlues/chemin/2"/><trkseg>
<trkpt lat="50.386452" lon="4.265223"><time>2026-05-02T20:50:01Z</time></trkpt>
<trkpt lat="50.386137" lon="4.264774"><time>2026-05-02T21:00:01Z</time></trkpt>
</trkseg></trk>
<trk>
<name>halal2</name>
<cmt>v</cmt>
<desc>Anderlues Chemin n°2 Chemin Noir</desc>
<link href="https://chemins.be/anderlues/chemin/2"/><trkseg>
<trkpt lat="50.386137" lon="4.264774"><time>2026-05-02T21:00:01Z</time></trkpt>
<trkpt lat="50.383674" lon="4.265426"><time>2026-05-02T21:10:01Z</time></trkpt>
</trkseg>
</trk>
<trk>
<name>halal21</name>
<cmt>v</cmt>
<desc>Anderlues Chemin n°21 </desc>
<link href="https://chemins.be/anderlues/chemin/21"/><trkseg>
<trkpt lat="50.408194" lon="4.260133"><time>2026-05-02T20:50:01Z</time></trkpt>
<trkpt lat="50.408079" lon="4.262159"><time>2026-05-02T21:00:01Z</time></trkpt>
<trkpt lat="50.407554" lon="4.263987"><time>2026-05-02T21:10:01Z</time></trkpt>
<trkpt lat="50.407078" lon="4.264863"><time>2026-05-02T21:20:01Z</time></trkpt>
<trkpt lat="50.406714" lon="4.266477"><time>2026-05-02T21:30:01Z</time></trkpt>
<trkpt lat="50.406394" lon="4.267334"><time>2026-05-02T21:40:01Z</time></trkpt>
</trkseg>
</trk>
<trk>
<name>halal22</name>
<cmt>r</cmt>
<desc>Anderlues Chemin n°22 </desc>
<link href="https://chemins.be/anderlues/chemin/22"/><trkseg>
<trkpt lat="50.417134" lon="4.292513"><time>2026-05-02T20:50:01Z</time></trkpt>
<trkpt lat="50.417267" lon="4.291347"><time>2026-05-02T21:00:01Z</time></trkpt>
</trkseg></trk>
<trk>
<name>halal22</name>
<cmt>q</cmt>
<desc>Anderlues Chemin n°22 </desc>
<link href="https://chemins.be/anderlues/chemin/22"/><trkseg>
<trkpt lat="50.417267" lon="4.291347"><time>2026-05-02T21:00:01Z</time></trkpt>
<trkpt lat="50.417886" lon="4.290381"><time>2026-05-02T21:10:01Z</time></trkpt>
<trkpt lat="50.418570" lon="4.287634"><time>2026-05-02T21:20:01Z</time></trkpt>
<trkpt lat="50.419504" lon="4.285789"><time>2026-05-02T21:30:01Z</time></trkpt>
<trkpt lat="50.419522" lon="4.284673"><time>2026-05-02T21:40:01Z</time></trkpt>
<trkpt lat="50.420288" lon="4.282799"><time>2026-05-02T21:50:01Z</time></trkpt>
<trkpt lat="50.420511" lon="4.281970"><time>2026-05-02T22:00:01Z</time></trkpt>
</trkseg>
</trk>
<trk>
<name>halal23</name>
<cmt>q</cmt>
<desc>Anderlues Chemin n°23 </desc>
<link href="https://chemins.be/anderlues/chemin/23"/><trkseg>
<trkpt lat="50.413917" lon="4.267534"><time>2026-05-02T20:50:01Z</time></trkpt>
<trkpt lat="50.414377" lon="4.268461"><time>2026-05-02T21:00:01Z</time></trkpt>
<trkpt lat="50.415000" lon="4.268452"><time>2026-05-02T21:10:01Z</time></trkpt>
<trkpt lat="50.415722" lon="4.269388"><time>2026-05-02T21:20:01Z</time></trkpt>
<trkpt lat="50.416373" lon="4.271019"><time>2026-05-02T21:30:01Z</time></trkpt>
<trkpt lat="50.416663" lon="4.271268"><time>2026-05-02T21:40:01Z</time></trkpt>
<trkpt lat="50.416367" lon="4.272632"><time>2026-05-02T21:50:01Z</time></trkpt>
</trkseg>
</trk>
<trk>
<name>halal24</name>
<cmt>r</cmt>
<desc>Anderlues Chemin n°24 </desc>
<link href="https://chemins.be/anderlues/chemin/24"/><trkseg>
<trkpt lat="50.417847" lon="4.274879"><time>2026-05-02T20:50:01Z</time></trkpt>
<trkpt lat="50.417912" lon="4.275626"><time>2026-05-02T21:00:01Z</time></trkpt>
<trkpt lat="50.418290" lon="4.276124"><time>2026-05-02T21:10:01Z</time></trkpt>
</trkseg></trk>
<trk>
<name>halal24</name>
<cmt>v</cmt>
<desc>Anderlues Chemin n°24 </desc>
<link href="https://chemins.be/anderlues/chemin/24"/><trkseg>
<trkpt lat="50.418290" lon="4.276124"><time>2026-05-02T21:10:01Z</time></trkpt>
<trkpt lat="50.418476" lon="4.277643"><time>2026-05-02T21:20:01Z</time></trkpt>
<trkpt lat="50.418616" lon="4.281306"><time>2026-05-02T21:30:01Z</time></trkpt>
<trkpt lat="50.418851" lon="4.281896"><time>2026-05-02T21:40:01Z</time></trkpt>
</trkseg></trk>
<trk>
<name>halal24</name>
<cmt>q</cmt>
<desc>Anderlues Chemin n°24 </desc>
<link href="https://chemins.be/anderlues/chemin/24"/><trkseg>
<trkpt lat="50.418851" lon="4.281896"><time>2026-05-02T21:40:01Z</time></trkpt>
<trkpt lat="50.419023" lon="4.282329"><time>2026-05-02T21:50:01Z</time></trkpt>
</trkseg></trk>
<trk>
<name>halal24</name>
<cmt>d</cmt>
<desc>Anderlues Chemin n°24 </desc>
<link href="https://chemins.be/anderlues/chemin/24"/><trkseg>
<trkpt lat="50.419023" lon="4.282329"><time>2026-05-02T21:50:01Z</time></trkpt>
<trkpt lat="50.419527" lon="4.284644"><time>2026-05-02T22:00:01Z</time></trkpt>
</trkseg>
</trk>
<trk>
<name>halal26</name>
<cmt>v</cmt>
<desc>Anderlues Chemin n°26 </desc>
<link href="https://chemins.be/anderlues/chemin/26"/><trkseg>
<trkpt lat="50.403712" lon="4.254295"><time>2026-05-02T20:50:01Z</time></trkpt>
<trkpt lat="50.404191" lon="4.252728"><time>2026-05-02T21:00:01Z</time></trkpt>
</trkseg>
</trk>
<trk>
<name>halal27</name>
<cmt>v</cmt>
<desc>Anderlues Chemin n°27 </desc>
<link href="https://chemins.be/anderlues/chemin/27"/><trkseg>
<trkpt lat="50.393755" lon="4.268273"><time>2026-05-02T20:50:01Z</time></trkpt>
<trkpt lat="50.394071" lon="4.269440"><time>2026-05-02T21:00:01Z</time></trkpt>
<trkpt lat="50.394387" lon="4.271014"><time>2026-05-02T21:10:01Z</time></trkpt>
<trkpt lat="50.395242" lon="4.272799"><time>2026-05-02T21:20:01Z</time></trkpt>
<trkpt lat="50.395638" lon="4.273234"><time>2026-05-02T21:30:01Z</time></trkpt>
<trkpt lat="50.395971" lon="4.273979"><time>2026-05-02T21:40:01Z</time></trkpt>
<trkpt lat="50.396197" lon="4.275216"><time>2026-05-02T21:50:01Z</time></trkpt>
</trkseg>
</trk>
<trk>
<name>halal29</name>
<cmt>v</cmt>
<desc>Anderlues Chemin n°29 </desc>
<link href="https://chemins.be/anderlues/chemin/29"/><trkseg>
<trkpt lat="50.410972" lon="4.249189"><time>2026-05-02T20:50:01Z</time></trkpt>
<trkpt lat="50.412983" lon="4.251444"><time>2026-05-02T21:00:01Z</time></trkpt>
<trkpt lat="50.413780" lon="4.251636"><time>2026-05-02T21:10:01Z</time></trkpt>
<trkpt lat="50.415263" lon="4.253390"><time>2026-05-02T21:20:01Z</time></trkpt>
</trkseg></trk>
<trk>
<name>halal29</name>
<cmt>q</cmt>
<desc>Anderlues Chemin n°29 </desc>
<link href="https://chemins.be/anderlues/chemin/29"/><trkseg>
<trkpt lat="50.415263" lon="4.253390"><time>2026-05-02T21:20:01Z</time></trkpt>
<trkpt lat="50.415895" lon="4.253302"><time>2026-05-02T21:30:01Z</time></trkpt>
</trkseg>
</trk>
<trk>
<name>halal3</name>
<cmt>v</cmt>
<desc>Anderlues Chemin n°3 Rue de Herchies / Chemin de Herchies / Rue d'Épinois / rue bois des étroits</desc>
<link href="https://chemins.be/anderlues/chemin/3"/><trkseg>
<trkpt lat="50.410985" lon="4.244306"><time>2026-05-02T20:50:01Z</time></trkpt>
<trkpt lat="50.409203" lon="4.243143"><time>2026-05-02T21:00:01Z</time></trkpt>
<trkpt lat="50.408322" lon="4.242765"><time>2026-05-02T21:10:01Z</time></trkpt>
<trkpt lat="50.406810" lon="4.241475"><time>2026-05-02T21:20:01Z</time></trkpt>
</trkseg></trk>
<trk>
<name>halal3</name>
<cmt>r</cmt>
<desc>Anderlues Chemin n°3 Rue de Herchies / Chemin de Herchies / Rue d'Épinois / rue bois des étroits</desc>
<link href="https://chemins.be/anderlues/chemin/3"/><trkseg>
<trkpt lat="50.406810" lon="4.241475"><time>2026-05-02T21:20:01Z</time></trkpt>
<trkpt lat="50.405802" lon="4.240831"><time>2026-05-02T21:30:01Z</time></trkpt>
<trkpt lat="50.403115" lon="4.242005"><time>2026-05-02T21:40:01Z</time></trkpt>
<trkpt lat="50.401894" lon="4.242754"><time>2026-05-02T21:50:01Z</time></trkpt>
<trkpt lat="50.400631" lon="4.242563"><time>2026-05-02T22:00:01Z</time></trkpt>
<trkpt lat="50.399484" lon="4.242563"><time>2026-05-02T22:10:01Z</time></trkpt>
<trkpt lat="50.399161" lon="4.242986"><time>2026-05-02T22:20:01Z</time></trkpt>
<trkpt lat="50.397506" lon="4.242611"><time>2026-05-02T22:30:01Z</time></trkpt>
<trkpt lat="50.395286" lon="4.242715"><time>2026-05-02T22:40:01Z</time></trkpt>
<trkpt lat="50.394730" lon="4.243968"><time>2026-05-02T22:50:01Z</time></trkpt>
<trkpt lat="50.392480" lon="4.242118"><time>2026-05-02T23:00:01Z</time></trkpt>
<trkpt lat="50.391347" lon="4.241741"><time>2026-05-02T23:10:01Z</time></trkpt>
<trkpt lat="50.389577" lon="4.242702"><time>2026-05-02T23:20:01Z</time></trkpt>
</trkseg></trk>
<trk>
<name>halal3</name>
<cmt>v</cmt>
<desc>Anderlues Chemin n°3 Rue de Herchies / Chemin de Herchies / Rue d'Épinois / rue bois des étroits</desc>
<link href="https://chemins.be/anderlues/chemin/3"/><trkseg>
<trkpt lat="50.389577" lon="4.242702"><time>2026-05-02T23:20:01Z</time></trkpt>
<trkpt lat="50.387994" lon="4.242453"><time>2026-05-02T23:30:01Z</time></trkpt>
<trkpt lat="50.385681" lon="4.240125"><time>2026-05-02T23:40:01Z</time></trkpt>
<trkpt lat="50.383937" lon="4.239891"><time>2026-05-02T23:50:01Z</time></trkpt>
<trkpt lat="50.382398" lon="4.238728"><time>2026-05-03T00:00:01Z</time></trkpt>
</trkseg>
</trk>
<trk>
<name>halal30</name>
<cmt>v</cmt>
<desc>Anderlues Chemin n°30 </desc>
<link href="https://chemins.be/anderlues/chemin/30"/><trkseg>
<trkpt lat="50.384039" lon="4.251533"><time>2026-05-02T20:50:01Z</time></trkpt>
<trkpt lat="50.384548" lon="4.248241"><time>2026-05-02T21:00:01Z</time></trkpt>
<trkpt lat="50.383504" lon="4.246922"><time>2026-05-02T21:10:01Z</time></trkpt>
<trkpt lat="50.383448" lon="4.245081"><time>2026-05-02T21:20:01Z</time></trkpt>
<trkpt lat="50.384399" lon="4.243602"><time>2026-05-02T21:30:01Z</time></trkpt>
<trkpt lat="50.385019" lon="4.243333"><time>2026-05-02T21:40:01Z</time></trkpt>
<trkpt lat="50.385650" lon="4.244259"><time>2026-05-02T21:50:01Z</time></trkpt>
<trkpt lat="50.386638" lon="4.243301"><time>2026-05-02T22:00:01Z</time></trkpt>
<trkpt lat="50.387356" lon="4.242624"><time>2026-05-02T22:10:01Z</time></trkpt>
<trkpt lat="50.388021" lon="4.242509"><time>2026-05-02T22:20:01Z</time></trkpt>
</trkseg>
</trk>
<trk>
<name>halal32</name>
<cmt>v</cmt>
<desc>Anderlues Chemin n°32 </desc>
<link href="https://chemins.be/anderlues/chemin/32"/><trkseg>
<trkpt lat="50.405646" lon="4.255067"><time>2026-05-02T20:50:01Z</time></trkpt>
<trkpt lat="50.405187" lon="4.254843"><time>2026-05-02T21:00:01Z</time></trkpt>
<trkpt lat="50.403740" lon="4.254326"><time>2026-05-02T21:10:01Z</time></trkpt>
<trkpt lat="50.402426" lon="4.253612"><time>2026-05-02T21:20:01Z</time></trkpt>
</trkseg></trk>
<trk>
<name>halal32</name>
<cmt>q</cmt>
<desc>Anderlues Chemin n°32 </desc>
<link href="https://chemins.be/anderlues/chemin/32"/><trkseg>
<trkpt lat="50.402426" lon="4.253612"><time>2026-05-02T21:20:01Z</time></trkpt>
<trkpt lat="50.401581" lon="4.253333"><time>2026-05-02T21:30:01Z</time></trkpt>
<trkpt lat="50.400689" lon="4.253417"><time>2026-05-02T21:40:01Z</time></trkpt>
<trkpt lat="50.398686" lon="4.253607"><time>2026-05-02T21:50:01Z</time></trkpt>
<trkpt lat="50.397796" lon="4.253806"><time>2026-05-02T22:00:01Z</time></trkpt>
</trkseg>
</trk>
<trk>
<name>halal35</name>
<cmt>v</cmt>
<desc>Anderlues Chemin n°35 Rue Culot du Bois</desc>
<link href="https://chemins.be/anderlues/chemin/35"/><trkseg>
<trkpt lat="50.420103" lon="4.255399"><time>2026-05-02T20:50:01Z</time></trkpt>
<trkpt lat="50.417523" lon="4.255475"><time>2026-05-02T21:00:01Z</time></trkpt>
<trkpt lat="50.416183" lon="4.255591"><time>2026-05-02T21:10:01Z</time></trkpt>
</trkseg>
</trk>
<trk>
<name>halal36</name>
<cmt>d</cmt>
<desc>Anderlues Chemin n°36 </desc>
<link href="https://chemins.be/anderlues/chemin/36"/><trkseg>
<trkpt lat="50.410341" lon="4.239271"><time>2026-05-02T20:50:01Z</time></trkpt>
<trkpt lat="50.409300" lon="4.241356"><time>2026-05-02T21:00:01Z</time></trkpt>
<trkpt lat="50.408538" lon="4.242779"><time>2026-05-02T21:10:01Z</time></trkpt>
</trkseg>
</trk>
<trk>
<name>halal37</name>
<cmt>s</cmt>
<desc>Anderlues Chemin n°37 </desc>
<link href="https://chemins.be/anderlues/chemin/37"/><trkseg>
<trkpt lat="50.404791" lon="4.291141"><time>2026-05-02T20:50:01Z</time></trkpt>
<trkpt lat="50.404964" lon="4.291824"><time>2026-05-02T21:00:01Z</time></trkpt>
</trkseg>
</trk>
<trk>
<name>halal38</name>
<cmt>q</cmt>
<desc>Anderlues Chemin n°38 </desc>
<link href="https://chemins.be/anderlues/chemin/38"/><trkseg>
<trkpt lat="50.422922" lon="4.271812"><time>2026-05-02T20:50:01Z</time></trkpt>
<trkpt lat="50.422212" lon="4.270034"><time>2026-05-02T21:00:01Z</time></trkpt>
</trkseg>
</trk>
<trk>
<name>halal39</name>
<cmt>v</cmt>
<desc>Anderlues Sentier n°39 Rue de l'Economat</desc>
<link href="https://chemins.be/anderlues/sentier/39"/><trkseg>
<trkpt lat="50.420524" lon="4.263418"><time>2026-05-02T20:50:01Z</time></trkpt>
<trkpt lat="50.420360" lon="4.260422"><time>2026-05-02T21:00:01Z</time></trkpt>
</trkseg></trk>
<trk>
<name>halal39</name>
<cmt>q</cmt>
<desc>Anderlues Sentier n°39 Rue de l'Economat</desc>
<link href="https://chemins.be/anderlues/sentier/39"/><trkseg>
<trkpt lat="50.420360" lon="4.260422"><time>2026-05-02T21:00:01Z</time></trkpt>
<trkpt lat="50.420447" lon="4.258212"><time>2026-05-02T21:10:01Z</time></trkpt>
</trkseg>
</trk>
<trk>
<name>halal4</name>
<cmt>v</cmt>
<desc>Anderlues Chemin n°4 </desc>
<link href="https://chemins.be/anderlues/chemin/4"/><trkseg>
<trkpt lat="50.395324" lon="4.242681"><time>2026-05-02T20:50:01Z</time></trkpt>
<trkpt lat="50.396962" lon="4.238582"><time>2026-05-02T21:00:01Z</time></trkpt>
</trkseg>
</trk>
<trk>
<name>halal42</name>
<cmt>v</cmt>
<desc>Anderlues Chemin n°42 </desc>
<link href="https://chemins.be/anderlues/chemin/42"/><trkseg>
<trkpt lat="50.386487" lon="4.274391"><time>2026-05-02T20:50:01Z</time></trkpt>
<trkpt lat="50.384429" lon="4.274944"><time>2026-05-02T21:00:01Z</time></trkpt>
</trkseg>
</trk>
<trk>
<name>halal50</name>
<cmt>r</cmt>
<desc>Anderlues Chemin n°50 Chemin Grande Paille</desc>
<link href="https://chemins.be/anderlues/chemin/50"/><trkseg>
<trkpt lat="50.391239" lon="4.241770"><time>2026-05-02T20:50:01Z</time></trkpt>
<trkpt lat="50.390815" lon="4.240941"><time>2026-05-02T21:00:01Z</time></trkpt>
<trkpt lat="50.390022" lon="4.238581"><time>2026-05-02T21:10:01Z</time></trkpt>
</trkseg></trk>
<trk>
<name>halal50</name>
<cmt>v</cmt>
<desc>Anderlues Chemin n°50 Chemin Grande Paille</desc>
<link href="https://chemins.be/anderlues/chemin/50"/><trkseg>
<trkpt lat="50.390022" lon="4.238581"><time>2026-05-02T21:10:01Z</time></trkpt>
<trkpt lat="50.389652" lon="4.237429"><time>2026-05-02T21:20:01Z</time></trkpt>
</trkseg>
</trk>
<trk>
<name>halal54</name>
<cmt>r</cmt>
<desc>Anderlues Chemin n°54 </desc>
<link href="https://chemins.be/anderlues/chemin/54"/><trkseg>
<trkpt lat="50.400971" lon="4.240665"><time>2026-05-02T20:50:01Z</time></trkpt>
<trkpt lat="50.400636" lon="4.242573"><time>2026-05-02T21:00:01Z</time></trkpt>
</trkseg>
</trk>
<trk>
<name>halal56bis</name>
<cmt>v</cmt>
<desc>Anderlues Sentier n°56bis Rue de la Bataille</desc>
<link href="https://chemins.be/anderlues/sentier/56bis"/><trkseg>
<trkpt lat="50.409532" lon="4.289821"><time>2026-05-02T20:50:01Z</time></trkpt>
<trkpt lat="50.409333" lon="4.288682"><time>2026-05-02T21:00:01Z</time></trkpt>
</trkseg>
</trk>
<trk>
<name>halal60</name>
<cmt>q</cmt>
<desc>Anderlues Chemin n°60 </desc>
<link href="https://chemins.be/anderlues/chemin/60"/><trkseg>
<trkpt lat="50.415754" lon="4.269496"><time>2026-05-02T20:50:01Z</time></trkpt>
<trkpt lat="50.416422" lon="4.269483"><time>2026-05-02T21:00:01Z</time></trkpt>
</trkseg>
</trk>
<trk>
<name>halal61</name>
<cmt>q</cmt>
<desc>Anderlues Chemin n°61 Chemin de Herchies</desc>
<link href="https://chemins.be/anderlues/chemin/61"/><trkseg>
<trkpt lat="50.394775" lon="4.246778"><time>2026-05-02T20:50:01Z</time></trkpt>
<trkpt lat="50.396274" lon="4.246315"><time>2026-05-02T21:00:01Z</time></trkpt>
<trkpt lat="50.397494" lon="4.242589"><time>2026-05-02T21:10:01Z</time></trkpt>
</trkseg></trk>
<trk>
<name>halal61</name>
<cmt>v</cmt>
<desc>Anderlues Chemin n°61 Chemin de Herchies</desc>
<link href="https://chemins.be/anderlues/chemin/61"/><trkseg>
<trkpt lat="50.397494" lon="4.242589"><time>2026-05-02T21:10:01Z</time></trkpt>
<trkpt lat="50.397997" lon="4.242753"><time>2026-05-02T21:20:01Z</time></trkpt>
</trkseg></trk>
<trk>
<name>halal61</name>
<cmt>q</cmt>
<desc>Anderlues Chemin n°61 Chemin de Herchies</desc>
<link href="https://chemins.be/anderlues/chemin/61"/><trkseg>
<trkpt lat="50.397997" lon="4.242753"><time>2026-05-02T21:20:01Z</time></trkpt>
<trkpt lat="50.401154" lon="4.240701"><time>2026-05-02T21:30:01Z</time></trkpt>
<trkpt lat="50.402867" lon="4.239148"><time>2026-05-02T21:40:01Z</time></trkpt>
</trkseg>
</trk>
<trk>
<name>halal62</name>
<cmt>q</cmt>
<desc>Anderlues Sentier n°62 Rue de la Parapette / Rue de l'Alouette</desc>
<link href="https://chemins.be/anderlues/sentier/62"/><trkseg>
<trkpt lat="50.386698" lon="4.236401"><time>2026-05-02T20:50:01Z</time></trkpt>
<trkpt lat="50.387448" lon="4.237671"><time>2026-05-02T21:00:01Z</time></trkpt>
<trkpt lat="50.388000" lon="4.238324"><time>2026-05-02T21:10:01Z</time></trkpt>
<trkpt lat="50.390211" lon="4.239096"><time>2026-05-02T21:20:01Z</time></trkpt>
<trkpt lat="50.393451" lon="4.238678"><time>2026-05-02T21:30:01Z</time></trkpt>
<trkpt lat="50.394586" lon="4.238661"><time>2026-05-02T21:40:01Z</time></trkpt>
<trkpt lat="50.395639" lon="4.238259"><time>2026-05-02T21:50:01Z</time></trkpt>
<trkpt lat="50.396985" lon="4.238568"><time>2026-05-02T22:00:01Z</time></trkpt>
<trkpt lat="50.398359" lon="4.238882"><time>2026-05-02T22:10:01Z</time></trkpt>
</trkseg></trk>
<trk>
<name>halal62</name>
<cmt>r</cmt>
<desc>Anderlues Sentier n°62 Rue de la Parapette / Rue de l'Alouette</desc>
<link href="https://chemins.be/anderlues/sentier/62"/><trkseg>
<trkpt lat="50.398359" lon="4.238882"><time>2026-05-02T22:10:01Z</time></trkpt>
<trkpt lat="50.398641" lon="4.239059"><time>2026-05-02T22:20:01Z</time></trkpt>
<trkpt lat="50.400180" lon="4.240199"><time>2026-05-02T22:30:01Z</time></trkpt>
<trkpt lat="50.400511" lon="4.240392"><time>2026-05-02T22:40:01Z</time></trkpt>
<trkpt lat="50.401045" lon="4.240680"><time>2026-05-02T22:50:01Z</time></trkpt>
</trkseg>
</trk>
<trk>
<name>halal63</name>
<cmt>v</cmt>
<desc>Anderlues Sentier n°63 </desc>
<link href="https://chemins.be/anderlues/sentier/63"/><trkseg>
<trkpt lat="50.408325" lon="4.229569"><time>2026-05-02T20:50:01Z</time></trkpt>
<trkpt lat="50.407713" lon="4.229557"><time>2026-05-02T21:00:01Z</time></trkpt>
</trkseg>
</trk>
<trk>
<name>halal64</name>
<cmt>v</cmt>
<desc>Anderlues Sentier n°64 Chemin de Herchies</desc>
<link href="https://chemins.be/anderlues/sentier/64"/><trkseg>
<trkpt lat="50.402227" lon="4.241325"><time>2026-05-02T20:50:01Z</time></trkpt>
<trkpt lat="50.403098" lon="4.242048"><time>2026-05-02T21:00:01Z</time></trkpt>
</trkseg></trk>
<trk>
<name>halal64</name>
<cmt>d</cmt>
<desc>Anderlues Sentier n°64 Chemin de Herchies</desc>
<link href="https://chemins.be/anderlues/sentier/64"/><trkseg>
<trkpt lat="50.403098" lon="4.242048"><time>2026-05-02T21:00:01Z</time></trkpt>
<trkpt lat="50.405261" lon="4.243560"><time>2026-05-02T21:10:01Z</time></trkpt>
</trkseg></trk>
<trk>
<name>halal64</name>
<cmt>q</cmt>
<desc>Anderlues Sentier n°64 Chemin de Herchies</desc>
<link href="https://chemins.be/anderlues/sentier/64"/><trkseg>
<trkpt lat="50.405261" lon="4.243560"><time>2026-05-02T21:10:01Z</time></trkpt>
<trkpt lat="50.405905" lon="4.243967"><time>2026-05-02T21:20:01Z</time></trkpt>
<trkpt lat="50.406534" lon="4.244148"><time>2026-05-02T21:30:01Z</time></trkpt>
</trkseg></trk>
<trk>
<name>halal64</name>
<cmt>v</cmt>
<desc>Anderlues Sentier n°64 Chemin de Herchies</desc>
<link href="https://chemins.be/anderlues/sentier/64"/><trkseg>
<trkpt lat="50.406534" lon="4.244148"><time>2026-05-02T21:30:01Z</time></trkpt>
<trkpt lat="50.407025" lon="4.244256"><time>2026-05-02T21:40:01Z</time></trkpt>
</trkseg></trk>
<trk>
<name>halal64</name>
<cmt>q</cmt>
<desc>Anderlues Sentier n°64 Chemin de Herchies</desc>
<link href="https://chemins.be/anderlues/sentier/64"/><trkseg>
<trkpt lat="50.407025" lon="4.244256"><time>2026-05-02T21:40:01Z</time></trkpt>
<trkpt lat="50.407226" lon="4.244492"><time>2026-05-02T21:50:01Z</time></trkpt>
<trkpt lat="50.408285" lon="4.247042"><time>2026-05-02T22:00:01Z</time></trkpt>
</trkseg>
</trk>
<trk>
<name>halal65</name>
<cmt>v</cmt>
<desc>Anderlues Sentier n°65 </desc>
<link href="https://chemins.be/anderlues/sentier/65"/><trkseg>
<trkpt lat="50.407042" lon="4.244213"><time>2026-05-02T20:50:01Z</time></trkpt>
<trkpt lat="50.408464" lon="4.242871"><time>2026-05-02T21:00:01Z</time></trkpt>
</trkseg>
</trk>
<trk>
<name>halal66</name>
<cmt>q</cmt>
<desc>Anderlues Sentier n°66 Rue du Puisoir</desc>
<link href="https://chemins.be/anderlues/sentier/66"/><trkseg>
<trkpt lat="50.406591" lon="4.248033"><time>2026-05-02T20:50:01Z</time></trkpt>
<trkpt lat="50.406747" lon="4.247725"><time>2026-05-02T21:00:01Z</time></trkpt>
<trkpt lat="50.407613" lon="4.247403"><time>2026-05-02T21:10:01Z</time></trkpt>
<trkpt lat="50.407828" lon="4.247149"><time>2026-05-02T21:20:01Z</time></trkpt>
</trkseg></trk>
<trk>
<name>halal66</name>
<cmt>r</cmt>
<desc>Anderlues Sentier n°66 Rue du Puisoir</desc>
<link href="https://chemins.be/anderlues/sentier/66"/><trkseg>
<trkpt lat="50.407828" lon="4.247149"><time>2026-05-02T21:20:01Z</time></trkpt>
<trkpt lat="50.408157" lon="4.246908"><time>2026-05-02T21:30:01Z</time></trkpt>
</trkseg></trk>
<trk>
<name>halal66</name>
<cmt>q</cmt>
<desc>Anderlues Sentier n°66 Rue du Puisoir</desc>
<link href="https://chemins.be/anderlues/sentier/66"/><trkseg>
<trkpt lat="50.408157" lon="4.246908"><time>2026-05-02T21:30:01Z</time></trkpt>
<trkpt lat="50.411519" lon="4.245012"><time>2026-05-02T21:40:01Z</time></trkpt>
</trkseg>
</trk>
<trk>
<name>halal67</name>
<cmt>q</cmt>
<desc>Anderlues Sentier n°67 </desc>
<link href="https://chemins.be/anderlues/sentier/67"/><trkseg>
<trkpt lat="50.411068" lon="4.247802"><time>2026-05-02T20:50:01Z</time></trkpt>
<trkpt lat="50.410462" lon="4.243968"><time>2026-05-02T21:00:01Z</time></trkpt>
<trkpt lat="50.410275" lon="4.241779"><time>2026-05-02T21:10:01Z</time></trkpt>
<trkpt lat="50.410307" lon="4.239390"><time>2026-05-02T21:20:01Z</time></trkpt>
</trkseg>
</trk>
<trk>
<name>halal68</name>
<cmt>v</cmt>
<desc>Anderlues Sentier n°68 Sentier vicinal n°68s / Rue du Moulin</desc>
<link href="https://chemins.be/anderlues/sentier/68"/><trkseg>
<trkpt lat="50.415929" lon="4.253298"><time>2026-05-02T20:50:01Z</time></trkpt>
<trkpt lat="50.415875" lon="4.253228"><time>2026-05-02T21:00:01Z</time></trkpt>
<trkpt lat="50.415542" lon="4.251976"><time>2026-05-02T21:10:01Z</time></trkpt>
<trkpt lat="50.415415" lon="4.251639"><time>2026-05-02T21:20:01Z</time></trkpt>
<trkpt lat="50.415019" lon="4.250866"><time>2026-05-02T21:30:01Z</time></trkpt>
<trkpt lat="50.414884" lon="4.250557"><time>2026-05-02T21:40:01Z</time></trkpt>
</trkseg></trk>
<trk>
<name>halal68</name>
<cmt>r</cmt>
<desc>Anderlues Sentier n°68 Sentier vicinal n°68s / Rue du Moulin</desc>
<link href="https://chemins.be/anderlues/sentier/68"/><trkseg>
<trkpt lat="50.414884" lon="4.250557"><time>2026-05-02T21:40:01Z</time></trkpt>
<trkpt lat="50.414758" lon="4.250290"><time>2026-05-02T21:50:01Z</time></trkpt>
<trkpt lat="50.414461" lon="4.250150"><time>2026-05-02T22:00:01Z</time></trkpt>
<trkpt lat="50.414263" lon="4.249700"><time>2026-05-02T22:10:01Z</time></trkpt>
<trkpt lat="50.413020" lon="4.247874"><time>2026-05-02T22:20:01Z</time></trkpt>
<trkpt lat="50.411544" lon="4.245838"><time>2026-05-02T22:30:01Z</time></trkpt>
</trkseg>
</trk>
<trk>
<name>halal69</name>
<cmt>q</cmt>
<desc>Anderlues Sentier n°69 </desc>
<link href="https://chemins.be/anderlues/sentier/69"/><trkseg>
<trkpt lat="50.414102" lon="4.249552"><time>2026-05-02T20:50:01Z</time></trkpt>
<trkpt lat="50.411429" lon="4.249649"><time>2026-05-02T21:00:01Z</time></trkpt>
</trkseg>
</trk>
<trk>
<name>halal70</name>
<cmt>r</cmt>
<desc>Anderlues Sentier n°70 </desc>
<link href="https://chemins.be/anderlues/sentier/70"/><trkseg>
<trkpt lat="50.406573" lon="4.248038"><time>2026-05-02T20:50:01Z</time></trkpt>
<trkpt lat="50.406956" lon="4.248674"><time>2026-05-02T21:00:01Z</time></trkpt>
<trkpt lat="50.407353" lon="4.249447"><time>2026-05-02T21:10:01Z</time></trkpt>
</trkseg></trk>
<trk>
<name>halal70</name>
<cmt>q</cmt>
<desc>Anderlues Sentier n°70 </desc>
<link href="https://chemins.be/anderlues/sentier/70"/><trkseg>
<trkpt lat="50.407353" lon="4.249447"><time>2026-05-02T21:10:01Z</time></trkpt>
<trkpt lat="50.407923" lon="4.250084"><time>2026-05-02T21:20:01Z</time></trkpt>
<trkpt lat="50.408351" lon="4.249876"><time>2026-05-02T21:30:01Z</time></trkpt>
<trkpt lat="50.408808" lon="4.250646"><time>2026-05-02T21:40:01Z</time></trkpt>
<trkpt lat="50.409836" lon="4.251851"><time>2026-05-02T21:50:01Z</time></trkpt>
<trkpt lat="50.411621" lon="4.252863"><time>2026-05-02T22:00:01Z</time></trkpt>
<trkpt lat="50.412767" lon="4.253664"><time>2026-05-02T22:10:01Z</time></trkpt>
<trkpt lat="50.413740" lon="4.253689"><time>2026-05-02T22:20:01Z</time></trkpt>
<trkpt lat="50.415255" lon="4.254194"><time>2026-05-02T22:30:01Z</time></trkpt>
<trkpt lat="50.416018" lon="4.253813"><time>2026-05-02T22:40:01Z</time></trkpt>
</trkseg>
</trk>
<trk>
<name>halal71</name>
<cmt>q</cmt>
<desc>Anderlues Sentier n°71 </desc>
<link href="https://chemins.be/anderlues/sentier/71"/><trkseg>
<trkpt lat="50.408731" lon="4.247831"><time>2026-05-02T20:50:01Z</time></trkpt>
<trkpt lat="50.408692" lon="4.249147"><time>2026-05-02T21:00:01Z</time></trkpt>
<trkpt lat="50.408865" lon="4.249873"><time>2026-05-02T21:10:01Z</time></trkpt>
<trkpt lat="50.408863" lon="4.250646"><time>2026-05-02T21:20:01Z</time></trkpt>
</trkseg>
</trk>
<trk>
<name>halal72</name>
<cmt>q</cmt>
<desc>Anderlues Sentier n°72 Rue du Vieux Cimetière</desc>
<link href="https://chemins.be/anderlues/sentier/72"/><trkseg>
<trkpt lat="50.410008" lon="4.252006"><time>2026-05-02T20:50:01Z</time></trkpt>
<trkpt lat="50.409994" lon="4.254713"><time>2026-05-02T21:00:01Z</time></trkpt>
<trkpt lat="50.409938" lon="4.255945"><time>2026-05-02T21:10:01Z</time></trkpt>
</trkseg></trk>
<trk>
<name>halal72</name>
<cmt>r</cmt>
<desc>Anderlues Sentier n°72 Rue du Vieux Cimetière</desc>
<link href="https://chemins.be/anderlues/sentier/72"/><trkseg>
<trkpt lat="50.409938" lon="4.255945"><time>2026-05-02T21:10:01Z</time></trkpt>
<trkpt lat="50.409957" lon="4.258339"><time>2026-05-02T21:20:01Z</time></trkpt>
<trkpt lat="50.409763" lon="4.259595"><time>2026-05-02T21:30:01Z</time></trkpt>
<trkpt lat="50.410045" lon="4.261619"><time>2026-05-02T21:40:01Z</time></trkpt>
<trkpt lat="50.409131" lon="4.267452"><time>2026-05-02T21:50:01Z</time></trkpt>
</trkseg>
</trk>
<trk>
<name>halal73</name>
<cmt>q</cmt>
<desc>Anderlues Sentier n°73 Rue de la Rocaille</desc>
<link href="https://chemins.be/anderlues/sentier/73"/><trkseg>
<trkpt lat="50.409131" lon="4.267352"><time>2026-05-02T20:50:01Z</time></trkpt>
<trkpt lat="50.408466" lon="4.265306"><time>2026-05-02T21:00:01Z</time></trkpt>
<trkpt lat="50.408137" lon="4.261987"><time>2026-05-02T21:10:01Z</time></trkpt>
</trkseg></trk>
<trk>
<name>halal73</name>
<cmt>v</cmt>
<desc>Anderlues Sentier n°73 Rue de la Rocaille</desc>
<link href="https://chemins.be/anderlues/sentier/73"/><trkseg>
<trkpt lat="50.408137" lon="4.261987"><time>2026-05-02T21:10:01Z</time></trkpt>
<trkpt lat="50.408165" lon="4.259999"><time>2026-05-02T21:20:01Z</time></trkpt>
</trkseg></trk>
<trk>
<name>halal73</name>
<cmt>q</cmt>
<desc>Anderlues Sentier n°73 Rue de la Rocaille</desc>
<link href="https://chemins.be/anderlues/sentier/73"/><trkseg>
<trkpt lat="50.408165" lon="4.259999"><time>2026-05-02T21:20:01Z</time></trkpt>
<trkpt lat="50.407136" lon="4.255970"><time>2026-05-02T21:30:01Z</time></trkpt>
<trkpt lat="50.407469" lon="4.253499"><time>2026-05-02T21:40:01Z</time></trkpt>
<trkpt lat="50.407484" lon="4.252324"><time>2026-05-02T21:50:01Z</time></trkpt>
</trkseg></trk>
<trk>
<name>halal73</name>
<cmt>r</cmt>
<desc>Anderlues Sentier n°73 Rue de la Rocaille</desc>
<link href="https://chemins.be/anderlues/sentier/73"/><trkseg>
<trkpt lat="50.407484" lon="4.252324"><time>2026-05-02T21:50:01Z</time></trkpt>
<trkpt lat="50.407452" lon="4.250575"><time>2026-05-02T22:00:01Z</time></trkpt>
</trkseg></trk>
<trk>
<name>halal73</name>
<cmt>q</cmt>
<desc>Anderlues Sentier n°73 Rue de la Rocaille</desc>
<link href="https://chemins.be/anderlues/sentier/73"/><trkseg>
<trkpt lat="50.407452" lon="4.250575"><time>2026-05-02T22:00:01Z</time></trkpt>
<trkpt lat="50.407890" lon="4.250486"><time>2026-05-02T22:10:01Z</time></trkpt>
<trkpt lat="50.407917" lon="4.250121"><time>2026-05-02T22:20:01Z</time></trkpt>
</trkseg>
</trk>
<trk>
<name>halal74</name>
<cmt>v</cmt>
<desc>Anderlues Sentier n°74 </desc>
<link href="https://chemins.be/anderlues/sentier/74"/><trkseg>
<trkpt lat="50.410421" lon="4.255028"><time>2026-05-02T20:50:01Z</time></trkpt>
<trkpt lat="50.409701" lon="4.254568"><time>2026-05-02T21:00:01Z</time></trkpt>
<trkpt lat="50.408913" lon="4.253991"><time>2026-05-02T21:10:01Z</time></trkpt>
</trkseg></trk>
<trk>
<name>halal74</name>
<cmt>r</cmt>
<desc>Anderlues Sentier n°74 </desc>
<link href="https://chemins.be/anderlues/sentier/74"/><trkseg>
<trkpt lat="50.408913" lon="4.253991"><time>2026-05-02T21:10:01Z</time></trkpt>
<trkpt lat="50.408780" lon="4.254270"><time>2026-05-02T21:20:01Z</time></trkpt>
<trkpt lat="50.408211" lon="4.253905"><time>2026-05-02T21:30:01Z</time></trkpt>
</trkseg></trk>
<trk>
<name>halal74</name>
<cmt>q</cmt>
<desc>Anderlues Sentier n°74 </desc>
<link href="https://chemins.be/anderlues/sentier/74"/><trkseg>
<trkpt lat="50.408211" lon="4.253905"><time>2026-05-02T21:30:01Z</time></trkpt>
<trkpt lat="50.408177" lon="4.254020"><time>2026-05-02T21:40:01Z</time></trkpt>
<trkpt lat="50.407453" lon="4.253507"><time>2026-05-02T21:50:01Z</time></trkpt>
<trkpt lat="50.407344" lon="4.254220"><time>2026-05-02T22:00:01Z</time></trkpt>
<trkpt lat="50.406447" lon="4.254243"><time>2026-05-02T22:10:01Z</time></trkpt>
</trkseg></trk>
<trk>
<name>halal74</name>
<cmt>v</cmt>
<desc>Anderlues Sentier n°74 </desc>
<link href="https://chemins.be/anderlues/sentier/74"/><trkseg>
<trkpt lat="50.406447" lon="4.254243"><time>2026-05-02T22:10:01Z</time></trkpt>
<trkpt lat="50.406078" lon="4.253990"><time>2026-05-02T22:20:01Z</time></trkpt>
</trkseg>
</trk>
<trk>
<name>halal75</name>
<cmt>q</cmt>
<desc>Anderlues Sentier n°75 </desc>
<link href="https://chemins.be/anderlues/sentier/75"/><trkseg>
<trkpt lat="50.408312" lon="4.255825"><time>2026-05-02T20:50:01Z</time></trkpt>
<trkpt lat="50.407885" lon="4.255567"><time>2026-05-02T21:00:01Z</time></trkpt>
<trkpt lat="50.407130" lon="4.256048"><time>2026-05-02T21:10:01Z</time></trkpt>
<trkpt lat="50.406627" lon="4.255516"><time>2026-05-02T21:20:01Z</time></trkpt>
<trkpt lat="50.405768" lon="4.255138"><time>2026-05-02T21:30:01Z</time></trkpt>
</trkseg>
</trk>
<trk>
<name>halal76</name>
<cmt>q</cmt>
<desc>Anderlues Sentier n°76 </desc>
<link href="https://chemins.be/anderlues/sentier/76"/><trkseg>
<trkpt lat="50.413607" lon="4.255512"><time>2026-05-02T20:50:01Z</time></trkpt>
<trkpt lat="50.416216" lon="4.254323"><time>2026-05-02T21:00:01Z</time></trkpt>
<trkpt lat="50.419306" lon="4.251763"><time>2026-05-02T21:10:01Z</time></trkpt>
<trkpt lat="50.420619" lon="4.251534"><time>2026-05-02T21:20:01Z</time></trkpt>
</trkseg>
</trk>
<trk>
<name>halal77</name>
<cmt>q</cmt>
<desc>Anderlues Sentier n°77 </desc>
<link href="https://chemins.be/anderlues/sentier/77"/><trkseg>
<trkpt lat="50.419296" lon="4.251780"><time>2026-05-02T20:50:01Z</time></trkpt>
<trkpt lat="50.419788" lon="4.250900"><time>2026-05-02T21:00:01Z</time></trkpt>
</trkseg>
</trk>
<trk>
<name>halal78</name>
<cmt>r</cmt>
<desc>Anderlues Sentier n°78 Rue Verte</desc>
<link href="https://chemins.be/anderlues/sentier/78"/><trkseg>
<trkpt lat="50.413522" lon="4.255396"><time>2026-05-02T20:50:01Z</time></trkpt>
<trkpt lat="50.413568" lon="4.255326"><time>2026-05-02T21:00:01Z</time></trkpt>
<trkpt lat="50.413785" lon="4.255223"><time>2026-05-02T21:10:01Z</time></trkpt>
<trkpt lat="50.413897" lon="4.255023"><time>2026-05-02T21:20:01Z</time></trkpt>
<trkpt lat="50.413921" lon="4.254469"><time>2026-05-02T21:30:01Z</time></trkpt>
</trkseg></trk>
<trk>
<name>halal78</name>
<cmt>d</cmt>
<desc>Anderlues Sentier n°78 Rue Verte</desc>
<link href="https://chemins.be/anderlues/sentier/78"/><trkseg>
<trkpt lat="50.413921" lon="4.254469"><time>2026-05-02T21:30:01Z</time></trkpt>
<trkpt lat="50.413952" lon="4.253743"><time>2026-05-02T21:40:01Z</time></trkpt>
<trkpt lat="50.413756" lon="4.253722"><time>2026-05-02T21:50:01Z</time></trkpt>
<trkpt lat="50.413774" lon="4.251551"><time>2026-05-02T22:00:01Z</time></trkpt>
<trkpt lat="50.414465" lon="4.250109"><time>2026-05-02T22:10:01Z</time></trkpt>
</trkseg>
</trk>
<trk>
<name>halal79</name>
<cmt>q</cmt>
<desc>Anderlues Sentier n°79 Rue de Chèvremont</desc>
<link href="https://chemins.be/anderlues/sentier/79"/><trkseg>
<trkpt lat="50.424121" lon="4.258695"><time>2026-05-02T20:50:01Z</time></trkpt>
<trkpt lat="50.422749" lon="4.258745"><time>2026-05-02T21:00:01Z</time></trkpt>
<trkpt lat="50.421619" lon="4.258309"><time>2026-05-02T21:10:01Z</time></trkpt>
<trkpt lat="50.419085" lon="4.257615"><time>2026-05-02T21:20:01Z</time></trkpt>
<trkpt lat="50.417075" lon="4.258566"><time>2026-05-02T21:30:01Z</time></trkpt>
<trkpt lat="50.416137" lon="4.258478"><time>2026-05-02T21:40:01Z</time></trkpt>
<trkpt lat="50.416137" lon="4.258106"><time>2026-05-02T21:50:01Z</time></trkpt>
</trkseg>
</trk>
<trk>
<name>halal80</name>
<cmt>v</cmt>
<desc>Anderlues Sentier n°80 </desc>
<link href="https://chemins.be/anderlues/sentier/80"/><trkseg>
<trkpt lat="50.421983" lon="4.256041"><time>2026-05-02T20:50:01Z</time></trkpt>
<trkpt lat="50.421938" lon="4.256590"><time>2026-05-02T21:00:01Z</time></trkpt>
<trkpt lat="50.421858" lon="4.257618"><time>2026-05-02T21:10:01Z</time></trkpt>
</trkseg>
</trk>
<trk>
<name>halal81</name>
<cmt>q</cmt>
<desc>Anderlues Sentier n°81 </desc>
<link href="https://chemins.be/anderlues/sentier/81"/><trkseg>
<trkpt lat="50.409067" lon="4.271686"><time>2026-05-02T20:50:01Z</time></trkpt>
<trkpt lat="50.412163" lon="4.270519"><time>2026-05-02T21:00:01Z</time></trkpt>
<trkpt lat="50.412819" lon="4.269660"><time>2026-05-02T21:10:01Z</time></trkpt>
<trkpt lat="50.414285" lon="4.270124"><time>2026-05-02T21:20:01Z</time></trkpt>
<trkpt lat="50.414663" lon="4.270303"><time>2026-05-02T21:30:01Z</time></trkpt>
<trkpt lat="50.414740" lon="4.270488"><time>2026-05-02T21:40:01Z</time></trkpt>
</trkseg></trk>
<trk>
<name>halal81</name>
<cmt>v</cmt>
<desc>Anderlues Sentier n°81 </desc>
<link href="https://chemins.be/anderlues/sentier/81"/><trkseg>
<trkpt lat="50.414740" lon="4.270488"><time>2026-05-02T21:40:01Z</time></trkpt>
<trkpt lat="50.414863" lon="4.270375"><time>2026-05-02T21:50:01Z</time></trkpt>
<trkpt lat="50.415733" lon="4.270753"><time>2026-05-02T22:00:01Z</time></trkpt>
<trkpt lat="50.416017" lon="4.271010"><time>2026-05-02T22:10:01Z</time></trkpt>
<trkpt lat="50.416324" lon="4.271044"><time>2026-05-02T22:20:01Z</time></trkpt>
</trkseg></trk>
<trk>
<name>halal81</name>
<cmt>q</cmt>
<desc>Anderlues Sentier n°81 </desc>
<link href="https://chemins.be/anderlues/sentier/81"/><trkseg>
<trkpt lat="50.416324" lon="4.271044"><time>2026-05-02T22:20:01Z</time></trkpt>
<trkpt lat="50.416668" lon="4.271268"><time>2026-05-02T22:30:01Z</time></trkpt>
<trkpt lat="50.416619" lon="4.271628"><time>2026-05-02T22:40:01Z</time></trkpt>
<trkpt lat="50.416960" lon="4.272037"><time>2026-05-02T22:50:01Z</time></trkpt>
<trkpt lat="50.417198" lon="4.273625"><time>2026-05-02T23:00:01Z</time></trkpt>
</trkseg>
</trk>
<trk>
<name>halal82</name>
<cmt>q</cmt>
<desc>Anderlues Sentier n°82 </desc>
<link href="https://chemins.be/anderlues/sentier/82"/><trkseg>
<trkpt lat="50.398228" lon="4.265753"><time>2026-05-02T20:50:01Z</time></trkpt>
<trkpt lat="50.398388" lon="4.264675"><time>2026-05-02T21:00:01Z</time></trkpt>
<trkpt lat="50.399219" lon="4.263071"><time>2026-05-02T21:10:01Z</time></trkpt>
<trkpt lat="50.399845" lon="4.263318"><time>2026-05-02T21:20:01Z</time></trkpt>
<trkpt lat="50.400525" lon="4.264058"><time>2026-05-02T21:30:01Z</time></trkpt>
<trkpt lat="50.402480" lon="4.262502"><time>2026-05-02T21:40:01Z</time></trkpt>
<trkpt lat="50.403198" lon="4.261680"><time>2026-05-02T21:50:01Z</time></trkpt>
<trkpt lat="50.404203" lon="4.262043"><time>2026-05-02T22:00:01Z</time></trkpt>
<trkpt lat="50.405642" lon="4.261841"><time>2026-05-02T22:10:01Z</time></trkpt>
<trkpt lat="50.407629" lon="4.260077"><time>2026-05-02T22:20:01Z</time></trkpt>
<trkpt lat="50.408158" lon="4.259906"><time>2026-05-02T22:30:01Z</time></trkpt>
<trkpt lat="50.409909" lon="4.258561"><time>2026-05-02T22:40:01Z</time></trkpt>
</trkseg>
</trk>
<trk>
<name>halal83</name>
<cmt>q</cmt>
<desc>Anderlues Sentier n°83 Rue Lacherez / Cité des Aulniats</desc>
<link href="https://chemins.be/anderlues/sentier/83"/><trkseg>
<trkpt lat="50.413556" lon="4.275027"><time>2026-05-02T20:50:01Z</time></trkpt>
<trkpt lat="50.414169" lon="4.274229"><time>2026-05-02T21:00:01Z</time></trkpt>
<trkpt lat="50.413753" lon="4.272607"><time>2026-05-02T21:10:01Z</time></trkpt>
<trkpt lat="50.413967" lon="4.267446"><time>2026-05-02T21:20:01Z</time></trkpt>
</trkseg></trk>
<trk>
<name>halal83</name>
<cmt>r</cmt>
<desc>Anderlues Sentier n°83 Rue Lacherez / Cité des Aulniats</desc>
<link href="https://chemins.be/anderlues/sentier/83"/><trkseg>
<trkpt lat="50.413967" lon="4.267446"><time>2026-05-02T21:20:01Z</time></trkpt>
<trkpt lat="50.412764" lon="4.265884"><time>2026-05-02T21:30:01Z</time></trkpt>
<trkpt lat="50.412102" lon="4.264356"><time>2026-05-02T21:40:01Z</time></trkpt>
</trkseg></trk>
<trk>
<name>halal83</name>
<cmt>q</cmt>
<desc>Anderlues Sentier n°83 Rue Lacherez / Cité des Aulniats</desc>
<link href="https://chemins.be/anderlues/sentier/83"/><trkseg>
<trkpt lat="50.412102" lon="4.264356"><time>2026-05-02T21:40:01Z</time></trkpt>
<trkpt lat="50.411588" lon="4.262966"><time>2026-05-02T21:50:01Z</time></trkpt>
</trkseg></trk>
<trk>
<name>halal83</name>
<cmt>v</cmt>
<desc>Anderlues Sentier n°83 Rue Lacherez / Cité des Aulniats</desc>
<link href="https://chemins.be/anderlues/sentier/83"/><trkseg>
<trkpt lat="50.411588" lon="4.262966"><time>2026-05-02T21:50:01Z</time></trkpt>
<trkpt lat="50.411337" lon="4.262674"><time>2026-05-02T22:00:01Z</time></trkpt>
</trkseg></trk>
<trk>
<name>halal83</name>
<cmt>q</cmt>
<desc>Anderlues Sentier n°83 Rue Lacherez / Cité des Aulniats</desc>
<link href="https://chemins.be/anderlues/sentier/83"/><trkseg>
<trkpt lat="50.411337" lon="4.262674"><time>2026-05-02T22:00:01Z</time></trkpt>
<trkpt lat="50.409942" lon="4.258288"><time>2026-05-02T22:10:01Z</time></trkpt>
</trkseg>
</trk>
<trk>
<name>halal85</name>
<cmt>v</cmt>
<desc>Anderlues Sentier n°85 Sentier du Viaduc</desc>
<link href="https://chemins.be/anderlues/sentier/85"/><trkseg>
<trkpt lat="50.409137" lon="4.267608"><time>2026-05-02T20:50:01Z</time></trkpt>
<trkpt lat="50.408705" lon="4.267454"><time>2026-05-02T21:00:01Z</time></trkpt>
<trkpt lat="50.408013" lon="4.267076"><time>2026-05-02T21:10:01Z</time></trkpt>
<trkpt lat="50.407788" lon="4.267006"><time>2026-05-02T21:20:01Z</time></trkpt>
<trkpt lat="50.407482" lon="4.266838"><time>2026-05-02T21:30:01Z</time></trkpt>
<trkpt lat="50.407392" lon="4.266697"><time>2026-05-02T21:40:01Z</time></trkpt>
<trkpt lat="50.407113" lon="4.266613"><time>2026-05-02T21:50:01Z</time></trkpt>
<trkpt lat="50.406861" lon="4.266487"><time>2026-05-02T22:00:01Z</time></trkpt>
<trkpt lat="50.406700" lon="4.266474"><time>2026-05-02T22:10:01Z</time></trkpt>
<trkpt lat="50.406475" lon="4.266446"><time>2026-05-02T22:20:01Z</time></trkpt>
<trkpt lat="50.406052" lon="4.266419"><time>2026-05-02T22:30:01Z</time></trkpt>
<trkpt lat="50.405872" lon="4.266363"><time>2026-05-02T22:40:01Z</time></trkpt>
<trkpt lat="50.405719" lon="4.266279"><time>2026-05-02T22:50:01Z</time></trkpt>
</trkseg></trk>
<trk>
<name>halal85</name>
<cmt>q</cmt>
<desc>Anderlues Sentier n°85 Sentier du Viaduc</desc>
<link href="https://chemins.be/anderlues/sentier/85"/><trkseg>
<trkpt lat="50.405719" lon="4.266279"><time>2026-05-02T22:50:01Z</time></trkpt>
<trkpt lat="50.405418" lon="4.265850"><time>2026-05-02T23:00:01Z</time></trkpt>
<trkpt lat="50.404548" lon="4.265704"><time>2026-05-02T23:10:01Z</time></trkpt>
<trkpt lat="50.403930" lon="4.266459"><time>2026-05-02T23:20:01Z</time></trkpt>
</trkseg>
</trk>
<trk>
<name>halal86</name>
<cmt>q</cmt>
<desc>Anderlues Sentier n°86 </desc>
<link href="https://chemins.be/anderlues/sentier/86"/><trkseg>
<trkpt lat="50.406466" lon="4.267105"><time>2026-05-02T20:50:01Z</time></trkpt>
<trkpt lat="50.407180" lon="4.267847"><time>2026-05-02T21:00:01Z</time></trkpt>
<trkpt lat="50.407429" lon="4.268607"><time>2026-05-02T21:10:01Z</time></trkpt>
</trkseg>
</trk>
<trk>
<name>halal87</name>
<cmt>q</cmt>
<desc>Anderlues Sentier n°87 </desc>
<link href="https://chemins.be/anderlues/sentier/87"/><trkseg>
<trkpt lat="50.418590" lon="4.273462"><time>2026-05-02T20:50:01Z</time></trkpt>
<trkpt lat="50.418514" lon="4.272917"><time>2026-05-02T21:00:01Z</time></trkpt>
<trkpt lat="50.417824" lon="4.271638"><time>2026-05-02T21:10:01Z</time></trkpt>
<trkpt lat="50.417409" lon="4.269844"><time>2026-05-02T21:20:01Z</time></trkpt>
<trkpt lat="50.416416" lon="4.269488"><time>2026-05-02T21:30:01Z</time></trkpt>
</trkseg>
</trk>
<trk>
<name>halal88</name>
<cmt>q</cmt>
<desc>Anderlues Sentier n°88 </desc>
<link href="https://chemins.be/anderlues/sentier/88"/><trkseg>
<trkpt lat="50.414674" lon="4.270247"><time>2026-05-02T20:50:01Z</time></trkpt>
<trkpt lat="50.415701" lon="4.269186"><time>2026-05-02T21:00:01Z</time></trkpt>
<trkpt lat="50.417276" lon="4.269856"><time>2026-05-02T21:10:01Z</time></trkpt>
<trkpt lat="50.421848" lon="4.268585"><time>2026-05-02T21:20:01Z</time></trkpt>
<trkpt lat="50.424757" lon="4.266766"><time>2026-05-02T21:30:01Z</time></trkpt>
</trkseg>
</trk>
<trk>
<name>halal89</name>
<cmt>q</cmt>
<desc>Anderlues Sentier n°89 </desc>
<link href="https://chemins.be/anderlues/sentier/89"/><trkseg>
<trkpt lat="50.422171" lon="4.270077"><time>2026-05-02T20:50:01Z</time></trkpt>
<trkpt lat="50.421815" lon="4.269202"><time>2026-05-02T21:00:01Z</time></trkpt>
<trkpt lat="50.421862" lon="4.268524"><time>2026-05-02T21:10:01Z</time></trkpt>
<trkpt lat="50.420927" lon="4.266902"><time>2026-05-02T21:20:01Z</time></trkpt>
<trkpt lat="50.420538" lon="4.263503"><time>2026-05-02T21:30:01Z</time></trkpt>
</trkseg>
</trk>
<trk>
<name>halal9</name>
<cmt>q</cmt>
<desc>Anderlues Chemin n°9 </desc>
<link href="https://chemins.be/anderlues/chemin/9"/><trkseg>
<trkpt lat="50.412390" lon="4.279945"><time>2026-05-02T20:50:01Z</time></trkpt>
<trkpt lat="50.413374" lon="4.280024"><time>2026-05-02T21:00:01Z</time></trkpt>
<trkpt lat="50.416837" lon="4.282351"><time>2026-05-02T21:10:01Z</time></trkpt>
</trkseg></trk>
<trk>
<name>halal9</name>
<cmt>r</cmt>
<desc>Anderlues Chemin n°9 </desc>
<link href="https://chemins.be/anderlues/chemin/9"/><trkseg>
<trkpt lat="50.416837" lon="4.282351"><time>2026-05-02T21:10:01Z</time></trkpt>
<trkpt lat="50.417119" lon="4.283032"><time>2026-05-02T21:20:01Z</time></trkpt>
</trkseg></trk>
<trk>
<name>halal9</name>
<cmt>d</cmt>
<desc>Anderlues Chemin n°9 </desc>
<link href="https://chemins.be/anderlues/chemin/9"/><trkseg>
<trkpt lat="50.417119" lon="4.283032"><time>2026-05-02T21:20:01Z</time></trkpt>
<trkpt lat="50.417367" lon="4.283575"><time>2026-05-02T21:30:01Z</time></trkpt>
</trkseg></trk>
<trk>
<name>halal9</name>
<cmt>v</cmt>
<desc>Anderlues Chemin n°9 </desc>
<link href="https://chemins.be/anderlues/chemin/9"/><trkseg>
<trkpt lat="50.417367" lon="4.283575"><time>2026-05-02T21:30:01Z</time></trkpt>
<trkpt lat="50.417547" lon="4.283786"><time>2026-05-02T21:40:01Z</time></trkpt>
<trkpt lat="50.419624" lon="4.284668"><time>2026-05-02T21:50:01Z</time></trkpt>
<trkpt lat="50.422063" lon="4.287760"><time>2026-05-02T22:00:01Z</time></trkpt>
<trkpt lat="50.424098" lon="4.293062"><time>2026-05-02T22:10:01Z</time></trkpt>
<trkpt lat="50.424314" lon="4.293765"><time>2026-05-02T22:20:01Z</time></trkpt>
</trkseg>
</trk>
<trk>
<name>halal90</name>
<cmt>q</cmt>
<desc>Anderlues Sentier n°90 </desc>
<link href="https://chemins.be/anderlues/sentier/90"/><trkseg>
<trkpt lat="50.416617" lon="4.279371"><time>2026-05-02T20:50:01Z</time></trkpt>
<trkpt lat="50.415906" lon="4.277226"><time>2026-05-02T21:00:01Z</time></trkpt>
</trkseg></trk>
<trk>
<name>halal90</name>
<cmt>r</cmt>
<desc>Anderlues Sentier n°90 </desc>
<link href="https://chemins.be/anderlues/sentier/90"/><trkseg>
<trkpt lat="50.415906" lon="4.277226"><time>2026-05-02T21:00:01Z</time></trkpt>
<trkpt lat="50.415277" lon="4.277540"><time>2026-05-02T21:10:01Z</time></trkpt>
</trkseg></trk>
<trk>
<name>halal90</name>
<cmt>q</cmt>
<desc>Anderlues Sentier n°90 </desc>
<link href="https://chemins.be/anderlues/sentier/90"/><trkseg>
<trkpt lat="50.415277" lon="4.277540"><time>2026-05-02T21:10:01Z</time></trkpt>
<trkpt lat="50.413463" lon="4.275027"><time>2026-05-02T21:20:01Z</time></trkpt>
</trkseg>
</trk>
<trk>
<name>halal91</name>
<cmt>q</cmt>
<desc>Anderlues Sentier n°91 </desc>
<link href="https://chemins.be/anderlues/sentier/91"/><trkseg>
<trkpt lat="50.414762" lon="4.275316"><time>2026-05-02T20:50:01Z</time></trkpt>
<trkpt lat="50.415825" lon="4.274444"><time>2026-05-02T21:00:01Z</time></trkpt>
</trkseg>
</trk>
<trk>
<name>halal93</name>
<cmt>q</cmt>
<desc>Anderlues Sentier n°93 Rue Debiseau / Rue d'Espagne</desc>
<link href="https://chemins.be/anderlues/sentier/93"/><trkseg>
<trkpt lat="50.421328" lon="4.273319"><time>2026-05-02T20:50:01Z</time></trkpt>
<trkpt lat="50.421803" lon="4.273167"><time>2026-05-02T21:00:01Z</time></trkpt>
<trkpt lat="50.422873" lon="4.272155"><time>2026-05-02T21:10:01Z</time></trkpt>
</trkseg></trk>
<trk>
<name>halal93</name>
<cmt>r</cmt>
<desc>Anderlues Sentier n°93 Rue Debiseau / Rue d'Espagne</desc>
<link href="https://chemins.be/anderlues/sentier/93"/><trkseg>
<trkpt lat="50.422873" lon="4.272155"><time>2026-05-02T21:10:01Z</time></trkpt>
<trkpt lat="50.422845" lon="4.272850"><time>2026-05-02T21:20:01Z</time></trkpt>
</trkseg></trk>
<trk>
<name>halal93</name>
<cmt>q</cmt>
<desc>Anderlues Sentier n°93 Rue Debiseau / Rue d'Espagne</desc>
<link href="https://chemins.be/anderlues/sentier/93"/><trkseg>
<trkpt lat="50.422845" lon="4.272850"><time>2026-05-02T21:20:01Z</time></trkpt>
<trkpt lat="50.423206" lon="4.272816"><time>2026-05-02T21:30:01Z</time></trkpt>
<trkpt lat="50.425432" lon="4.274721"><time>2026-05-02T21:40:01Z</time></trkpt>
</trkseg>
</trk>
<trk>
<name>halal94</name>
<cmt>q</cmt>
<desc>Anderlues Sentier n°94 </desc>
<link href="https://chemins.be/anderlues/sentier/94"/><trkseg>
<trkpt lat="50.421331" lon="4.273309"><time>2026-05-02T20:50:01Z</time></trkpt>
<trkpt lat="50.421419" lon="4.272764"><time>2026-05-02T21:00:01Z</time></trkpt>
</trkseg>
</trk>
<trk>
<name>halal95</name>
<cmt>q</cmt>
<desc>Anderlues Sentier n°95 </desc>
<link href="https://chemins.be/anderlues/sentier/95"/><trkseg>
<trkpt lat="50.414909" lon="4.275462"><time>2026-05-02T20:50:01Z</time></trkpt>
<trkpt lat="50.413698" lon="4.276898"><time>2026-05-02T21:00:01Z</time></trkpt>
<trkpt lat="50.411117" lon="4.278649"><time>2026-05-02T21:10:01Z</time></trkpt>
<trkpt lat="50.410780" lon="4.279280"><time>2026-05-02T21:20:01Z</time></trkpt>
<trkpt lat="50.409503" lon="4.281670"><time>2026-05-02T21:30:01Z</time></trkpt>
</trkseg>
</trk>
<trk>
<name>halal96</name>
<cmt>q</cmt>
<desc>Anderlues Sentier n°96 </desc>
<link href="https://chemins.be/anderlues/sentier/96"/><trkseg>
<trkpt lat="50.416223" lon="4.276705"><time>2026-05-02T20:50:01Z</time></trkpt>
<trkpt lat="50.418266" lon="4.276160"><time>2026-05-02T21:00:01Z</time></trkpt>
<trkpt lat="50.420033" lon="4.276714"><time>2026-05-02T21:10:01Z</time></trkpt>
<trkpt lat="50.420350" lon="4.276512"><time>2026-05-02T21:20:01Z</time></trkpt>
<trkpt lat="50.421774" lon="4.277156"><time>2026-05-02T21:30:01Z</time></trkpt>
<trkpt lat="50.422540" lon="4.277662"><time>2026-05-02T21:40:01Z</time></trkpt>
<trkpt lat="50.424394" lon="4.277349"><time>2026-05-02T21:50:01Z</time></trkpt>
</trkseg>
</trk>
<trk>
<name>halal97</name>
<cmt>q</cmt>
<desc>Anderlues Sentier n°97 Sentier "Saint-Joseph"</desc>
<link href="https://chemins.be/anderlues/sentier/97"/><trkseg>
<trkpt lat="50.421173" lon="4.274025"><time>2026-05-02T20:50:01Z</time></trkpt>
<trkpt lat="50.421665" lon="4.274802"><time>2026-05-02T21:00:01Z</time></trkpt>
<trkpt lat="50.422469" lon="4.274819"><time>2026-05-02T21:10:01Z</time></trkpt>
<trkpt lat="50.422482" lon="4.274682"><time>2026-05-02T21:20:01Z</time></trkpt>
</trkseg></trk>
<trk>
<name>halal97</name>
<cmt>v</cmt>
<desc>Anderlues Sentier n°97 Sentier "Saint-Joseph"</desc>
<link href="https://chemins.be/anderlues/sentier/97"/><trkseg>
<trkpt lat="50.422482" lon="4.274682"><time>2026-05-02T21:20:01Z</time></trkpt>
<trkpt lat="50.422637" lon="4.274756"><time>2026-05-02T21:30:01Z</time></trkpt>
<trkpt lat="50.422700" lon="4.274686"><time>2026-05-02T21:40:01Z</time></trkpt>
<trkpt lat="50.422763" lon="4.274728"><time>2026-05-02T21:50:01Z</time></trkpt>
<trkpt lat="50.422979" lon="4.274882"><time>2026-05-02T22:00:01Z</time></trkpt>
<trkpt lat="50.423159" lon="4.274713"><time>2026-05-02T22:10:01Z</time></trkpt>
<trkpt lat="50.424480" lon="4.273922"><time>2026-05-02T22:20:01Z</time></trkpt>
<trkpt lat="50.424884" lon="4.273682"><time>2026-05-02T22:30:01Z</time></trkpt>
<trkpt lat="50.424965" lon="4.273626"><time>2026-05-02T22:40:01Z</time></trkpt>
<trkpt lat="50.425351" lon="4.273428"><time>2026-05-02T22:50:01Z</time></trkpt>
</trkseg>
</trk>
<trk>
<name>halal97bis</name>
<cmt>v</cmt>
<desc>Anderlues Sentier n°97bis </desc>
<link href="https://chemins.be/anderlues/sentier/97bis"/><trkseg>
<trkpt lat="50.422625" lon="4.276313"><time>2026-05-02T20:50:01Z</time></trkpt>
<trkpt lat="50.422936" lon="4.274849"><time>2026-05-02T21:00:01Z</time></trkpt>
</trkseg>
</trk>
<trk>
<name>halal98</name>
<cmt>q</cmt>
<desc>Anderlues Sentier n°98 </desc>
<link href="https://chemins.be/anderlues/sentier/98"/><trkseg>
<trkpt lat="50.421577" lon="4.275511"><time>2026-05-02T20:50:01Z</time></trkpt>
<trkpt lat="50.421675" lon="4.274850"><time>2026-05-02T21:00:01Z</time></trkpt>
</trkseg>
</trk>
<trk>
<name>halal99</name>
<cmt>d</cmt>
<desc>Anderlues Sentier n°99 </desc>
<link href="https://chemins.be/anderlues/sentier/99"/><trkseg>
<trkpt lat="50.418748" lon="4.276311"><time>2026-05-02T20:50:01Z</time></trkpt>
<trkpt lat="50.419714" lon="4.277356"><time>2026-05-02T21:00:01Z</time></trkpt>
<trkpt lat="50.421154" lon="4.278914"><time>2026-05-02T21:10:01Z</time></trkpt>
<trkpt lat="50.422789" lon="4.281741"><time>2026-05-02T21:20:01Z</time></trkpt>
<trkpt lat="50.425534" lon="4.289020"><time>2026-05-02T21:30:01Z</time></trkpt>
</trkseg>
</trk>
<trk>
<name>halali1</name>
<cmt>v</cmt>
<desc>Anderlues Chemin n°i1 Impasse Fontignie</desc>
<link href="https://chemins.be/anderlues/chemin/i1"/><trkseg>
<trkpt lat="50.406562" lon="4.273775"><time>2026-05-02T20:50:01Z</time></trkpt>
<trkpt lat="50.407156" lon="4.274266"><time>2026-05-02T21:00:01Z</time></trkpt>
</trkseg>
</trk>
<trk>
<name>halali2</name>
<cmt>v</cmt>
<desc>Anderlues Chemin n°i2 </desc>
<link href="https://chemins.be/anderlues/chemin/i2"/><trkseg>
<trkpt lat="50.424912" lon="4.264991"><time>2026-05-02T20:50:01Z</time></trkpt>
<trkpt lat="50.421065" lon="4.264836"><time>2026-05-02T21:00:01Z</time></trkpt>
</trkseg></trk>
<trk>
<name>halali2</name>
<cmt>d</cmt>
<desc>Anderlues Chemin n°i2 </desc>
<link href="https://chemins.be/anderlues/chemin/i2"/><trkseg>
<trkpt lat="50.421065" lon="4.264836"><time>2026-05-02T21:00:01Z</time></trkpt>
<trkpt lat="50.419813" lon="4.264154"><time>2026-05-02T21:10:01Z</time></trkpt>
<trkpt lat="50.419047" lon="4.263189"><time>2026-05-02T21:20:01Z</time></trkpt>
</trkseg>
</trk>
<trk>
<name>halali3</name>
<cmt>v</cmt>
<desc>Anderlues Chemin n°i3 </desc>
<link href="https://chemins.be/anderlues/chemin/i3"/><trkseg>
<trkpt lat="50.416930" lon="4.283838"><time>2026-05-02T20:50:01Z</time></trkpt>
<trkpt lat="50.417340" lon="4.283531"><time>2026-05-02T21:00:01Z</time></trkpt>
</trkseg>
</trk>
<trk>
<name>halalL281</name>
<cmt>v</cmt>
<desc>Anderlues Chemin n°L281 Ruelle du Dispensaire</desc>
<link href="https://chemins.be/anderlues/chemin/L281"/><trkseg>
<trkpt lat="50.407888" lon="4.291850"><time>2026-05-02T20:50:01Z</time></trkpt>
<trkpt lat="50.406466" lon="4.290403"><time>2026-05-02T21:00:01Z</time></trkpt>
</trkseg></trk>
<trk>
<name>halalL281</name>
<cmt>q</cmt>
<desc>Anderlues Chemin n°L281 Ruelle du Dispensaire</desc>
<link href="https://chemins.be/anderlues/chemin/L281"/><trkseg>
<trkpt lat="50.406466" lon="4.290403"><time>2026-05-02T21:00:01Z</time></trkpt>
<trkpt lat="50.406088" lon="4.289813"><time>2026-05-02T21:10:01Z</time></trkpt>
<trkpt lat="50.404243" lon="4.285835"><time>2026-05-02T21:20:01Z</time></trkpt>
</trkseg></trk>
<trk>
<name>halalL281</name>
<cmt>v</cmt>
<desc>Anderlues Chemin n°L281 Ruelle du Dispensaire</desc>
<link href="https://chemins.be/anderlues/chemin/L281"/><trkseg>
<trkpt lat="50.404243" lon="4.285835"><time>2026-05-02T21:20:01Z</time></trkpt>
<trkpt lat="50.401523" lon="4.279566"><time>2026-05-02T21:30:01Z</time></trkpt>
<trkpt lat="50.399307" lon="4.274338"><time>2026-05-02T21:40:01Z</time></trkpt>
</trkseg></trk>
<trk>
<name>halalL281</name>
<cmt>q</cmt>
<desc>Anderlues Chemin n°L281 Ruelle du Dispensaire</desc>
<link href="https://chemins.be/anderlues/chemin/L281"/><trkseg>
<trkpt lat="50.399307" lon="4.274338"><time>2026-05-02T21:40:01Z</time></trkpt>
<trkpt lat="50.397209" lon="4.269602"><time>2026-05-02T21:50:01Z</time></trkpt>
<trkpt lat="50.395551" lon="4.265696"><time>2026-05-02T22:00:01Z</time></trkpt>
<trkpt lat="50.391163" lon="4.255791"><time>2026-05-02T22:10:01Z</time></trkpt>
<trkpt lat="50.390235" lon="4.253219"><time>2026-05-02T22:20:01Z</time></trkpt>
<trkpt lat="50.389817" lon="4.248650"><time>2026-05-02T22:30:01Z</time></trkpt>
<trkpt lat="50.389352" lon="4.242632"><time>2026-05-02T22:40:01Z</time></trkpt>
<trkpt lat="50.389220" lon="4.237500"><time>2026-05-02T22:50:01Z</time></trkpt>
<trkpt lat="50.388864" lon="4.232748"><time>2026-05-02T23:00:01Z</time></trkpt>
</trkseg>
</trk>
<trk>
<name>halalp1</name>
<cmt>v</cmt>
<desc>Anderlues Chemin particulier n°p1 </desc>
<link href="https://chemins.be/anderlues/chemin/p1"/><trkseg>
<trkpt lat="50.383714" lon="4.269335"><time>2026-05-02T20:50:01Z</time></trkpt>
<trkpt lat="50.384402" lon="4.274958"><time>2026-05-02T21:00:01Z</time></trkpt>
<trkpt lat="50.384691" lon="4.276912"><time>2026-05-02T21:10:01Z</time></trkpt>
</trkseg>
</trk>
<trk>
<name>halalp2</name>
<cmt>q</cmt>
<desc>Anderlues Chemin particulier n°p2 </desc>
<link href="https://chemins.be/anderlues/chemin/p2"/><trkseg>
<trkpt lat="50.396996" lon="4.238570"><time>2026-05-02T20:50:01Z</time></trkpt>
<trkpt lat="50.394742" lon="4.238053"><time>2026-05-02T21:00:01Z</time></trkpt>
<trkpt lat="50.389839" lon="4.233693"><time>2026-05-02T21:10:01Z</time></trkpt>
</trkseg>
</trk>
<trk>
<name>halalp3</name>
<cmt>s</cmt>
<desc>Anderlues Chemin particulier n°p3 </desc>
<link href="https://chemins.be/anderlues/chemin/p3"/><trkseg>
<trkpt lat="50.390036" lon="4.233649"><time>2026-05-02T20:50:01Z</time></trkpt>
<trkpt lat="50.385676" lon="4.238741"><time>2026-05-02T21:00:01Z</time></trkpt>
<trkpt lat="50.383742" lon="4.242632"><time>2026-05-02T21:10:01Z</time></trkpt>
</trkseg>
</trk>
</gpx>